MOUNT RAINIER
GEOLOGY & WEATHER
Hello guest! [ Log In ]
morageology.com Water Data for White River at White River Bridge

White River at White River Bridge

Date Range to view:
 
[ Graphical View | Weather History ]

View this data in a CSV Format

GMT Date/Time Local Date/Time Stage (ft) Rainfall (in) Turbidity (ntu) Air Temperature (°C) Water Temperature (°C) Enclosure Temperature (°C) Dissolved Oxygen Temperature (°C) Turbidity Temperature (°C) 10-hour Fuel Temperature (°C) Water Conductivity (μS/cm) Dissolved Oxygen Level (mg/l) Snow Depth (m) Air Level (psi) Water Level (psi) Battery (V) Solar Panel (V) Slave Radio Battery Voltage (v) Slave Radio Solar Voltage (v) Master Radio Signal Strength (%) Slave Radio Signal Strength (%)
2022-01-15 08:00:00 2022-01-15 00:00:00 -999.0000 20.01 -999.00 -0.3520 -999.0000 -1.4 -999.0000 -999 0.0 -999.0000 -999.0000 1.241 12.8540 -999.0000 13.0 0.1 12.6600 0.0000 7.0000 1.0000
2022-01-15 08:15:00 2022-01-15 00:15:00 -999.0000 20.01 -999.00 -0.3550 -999.0000 -1.5 -999.0000 -999 0.0 -999.0000 -999.0000 1.241 12.8520 -999.0000 13.0 0.0 12.6500 0.0000 7.0000 3.0000
2022-01-15 08:30:00 2022-01-15 00:30:00 -999.0000 20.01 -999.00 -0.3680 -999.0000 -1.4 -999.0000 -999 0.0 -999.0000 -999.0000 1.242 12.8510 -999.0000 13.0 0.1 12.6400 0.0000 4.0000 6.0000
2022-01-15 08:45:00 2022-01-15 00:45:00 -999.0000 20.01 -999.00 -0.3800 -999.0000 -1.4 -999.0000 -999 0.0 -999.0000 -999.0000 1.242 12.8500 -999.0000 13.0 0.1 12.6400 0.0000 8.0000 4.0000
2022-01-15 09:00:00 2022-01-15 01:00:00 -999.0000 20.01 -999.00 -0.2940 -999.0000 -1.4 -999.0000 -999 0.0 -999.0000 -999.0000 1.241 12.8490 -999.0000 13.0 0.1 12.6400 0.0000 8.0000 10.0000
2022-01-15 09:15:00 2022-01-15 01:15:00 -999.0000 20.01 -999.00 -0.2690 -999.0000 -1.4 -999.0000 -999 0.0 -999.0000 -999.0000 1.239 12.8470 -999.0000 13.1 0.1 12.6500 0.0000 5.0000 11.0000
2022-01-15 09:30:00 2022-01-15 01:30:00 -999.0000 20.01 -999.00 -0.2480 -999.0000 -1.4 -999.0000 -999 0.0 -999.0000 -999.0000 1.239 12.8450 -999.0000 13.0 0.1 12.6400 0.0000 7.0000 11.0000
2022-01-15 09:45:00 2022-01-15 01:45:00 -999.0000 20.01 -999.00 -0.2200 -999.0000 -1.4 -999.0000 -999 0.0 -999.0000 -999.0000 1.239 12.8460 -999.0000 13.0 0.0 12.6400 0.0000 7.0000 11.0000
2022-01-15 10:00:00 2022-01-15 02:00:00 -999.0000 20.01 -999.00 -0.2140 -999.0000 -1.4 -999.0000 -999 0.0 -999.0000 -999.0000 1.239 12.8470 -999.0000 13.0 0.0 12.6400 0.0000 3.0000 8.0000
2022-01-15 10:15:00 2022-01-15 02:15:00 -999.0000 20.01 -999.00 -0.2810 -999.0000 -1.4 -999.0000 -999 0.0 -999.0000 -999.0000 1.239 12.8500 -999.0000 12.9 0.1 12.6400 0.0000 3.0000 4.0000
2022-01-15 10:30:00 2022-01-15 02:30:00 -999.0000 20.01 -999.00 -0.2920 -999.0000 -1.2 -999.0000 -999 0.0 -999.0000 -999.0000 1.238 12.8510 -999.0000 13.0 0.1 12.6400 0.0000 7.0000 8.0000
2022-01-15 10:45:00 2022-01-15 02:45:00 -999.0000 20.01 -999.00 -0.4160 -999.0000 -1.5 -999.0000 -999 0.0 -999.0000 -999.0000 1.238 12.8540 -999.0000 13.0 0.0 12.6400 0.0000 3.0000 6.0000
2022-01-15 11:00:00 2022-01-15 03:00:00 -999.0000 20.01 -999.00 -0.4720 -999.0000 -1.5 -999.0000 -999 0.0 -999.0000 -999.0000 1.239 12.8560 -999.0000 13.0 0.0 12.6400 0.0000 3.0000 1.0000
2022-01-15 11:15:00 2022-01-15 03:15:00 -999.0000 20.01 -999.00 -0.4720 -999.0000 -1.5 -999.0000 -999 0.0 -999.0000 -999.0000 1.243 12.8540 -999.0000 12.9 0.0 12.6500 0.0000 6.0000 5.0000
2022-01-15 11:30:00 2022-01-15 03:30:00 -999.0000 20.01 -999.00 -0.5090 -999.0000 -1.5 -999.0000 -999 0.0 -999.0000 -999.0000 1.238 12.8540 -999.0000 12.9 0.0 12.6400 0.0000 6.0000 10.0000
2022-01-15 11:45:00 2022-01-15 03:45:00 -999.0000 20.01 -999.00 -0.6320 -999.0000 -1.7 -999.0000 -999 0.0 -999.0000 -999.0000 1.235 12.8500 -999.0000 12.9 0.0 12.6500 0.0000 1.0000 8.0000
2022-01-15 12:00:00 2022-01-15 04:00:00 -999.0000 20.01 -999.00 -0.6230 -999.0000 -1.5 -999.0000 -999 0.0 -999.0000 -999.0000 1.234 12.8490 -999.0000 12.9 0.1 12.6600 0.0000 7.0000 9.0000
2022-01-15 12:15:00 2022-01-15 04:15:00 -999.0000 20.01 -999.00 -0.6620 -999.0000 -1.5 -999.0000 -999 0.0 -999.0000 -999.0000 1.234 12.8520 -999.0000 12.9 0.0 12.6600 0.0000 7.0000 7.0000
2022-01-15 12:30:00 2022-01-15 04:30:00 -999.0000 20.01 -999.00 -0.6710 -999.0000 -1.5 -999.0000 -999 0.0 -999.0000 -999.0000 1.234 12.8600 -999.0000 12.9 0.0 12.6600 0.0000 6.0000 12.0000
2022-01-15 12:45:00 2022-01-15 04:45:00 -999.0000 20.01 -999.00 -0.6650 -999.0000 -1.7 -999.0000 -999 0.0 -999.0000 -999.0000 1.233 12.8510 -999.0000 12.9 0.0 12.6600 0.0000 6.0000 11.0000
2022-01-15 13:00:00 2022-01-15 05:00:00 -999.0000 20.01 -999.00 -0.7960 -999.0000 -1.9 -999.0000 -999 0.0 -999.0000 -999.0000 1.233 12.8400 -999.0000 12.9 0.0 12.6500 0.0000 3.0000 2.0000
2022-01-15 13:15:00 2022-01-15 05:15:00 -999.0000 20.01 -999.00 -0.7350 -999.0000 -1.7 -999.0000 -999 0.0 -999.0000 -999.0000 1.233 12.8410 -999.0000 12.9 0.0 12.6400 0.0000 3.0000 3.0000
2022-01-15 13:30:00 2022-01-15 05:30:00 -999.0000 20.01 -999.00 -0.8860 -999.0000 -1.7 -999.0000 -999 0.0 -999.0000 -999.0000 1.233 12.8380 -999.0000 12.9 0.0 12.6400 0.0000 4.0000 4.0000
2022-01-15 13:45:00 2022-01-15 05:45:00 -999.0000 20.01 -999.00 -0.9190 -999.0000 -1.9 -999.0000 -999 0.0 -999.0000 -999.0000 1.233 12.8370 -999.0000 12.9 0.0 12.6400 0.0000 4.0000 5.0000
2022-01-15 14:00:00 2022-01-15 06:00:00 -999.0000 20.01 -999.00 -0.8740 -999.0000 -1.9 -999.0000 -999 0.0 -999.0000 -999.0000 1.233 12.8340 -999.0000 12.9 0.0 12.6400 0.0000 0.0000 2.0000
2022-01-15 14:15:00 2022-01-15 06:15:00 -999.0000 20.01 -999.00 -0.9000 -999.0000 -1.9 -999.0000 -999 0.0 -999.0000 -999.0000 1.233 12.8340 -999.0000 12.9 0.0 12.6500 0.0000 5.0000 2.0000
2022-01-15 14:30:00 2022-01-15 06:30:00 -999.0000 20.01 -999.00 -0.9160 -999.0000 -1.9 -999.0000 -999 0.0 -999.0000 -999.0000 1.233 12.8320 -999.0000 12.9 0.0 12.6600 0.0000 3.0000 6.0000
2022-01-15 14:45:00 2022-01-15 06:45:00 -999.0000 20.01 -999.00 -0.9110 -999.0000 -1.9 -999.0000 -999 0.0 -999.0000 -999.0000 1.234 12.8330 -999.0000 12.9 0.0 12.6500 0.0000 3.0000 2.0000
2022-01-15 15:00:00 2022-01-15 07:00:00 -999.0000 20.01 -999.00 -0.7130 -999.0000 -2.1 -999.0000 -999 0.0 -999.0000 -999.0000 1.233 12.8350 -999.0000 12.9 0.2 12.6400 0.0000 5.0000 4.0000
2022-01-15 15:15:00 2022-01-15 07:15:00 -999.0000 20.01 -999.00 -0.5630 -999.0000 -1.9 -999.0000 -999 0.0 -999.0000 -999.0000 1.232 12.8370 -999.0000 12.9 0.7 12.6400 0.0000 5.0000 6.0000
2022-01-15 15:30:00 2022-01-15 07:30:00 -999.0000 20.01 -999.00 -0.4940 -999.0000 -1.9 -999.0000 -999 0.0 -999.0000 -999.0000 1.233 12.8380 -999.0000 12.9 6.5 12.6400 0.0000 2.0000 4.0000
2022-01-15 15:45:00 2022-01-15 07:45:00 -999.0000 20.01 -999.00 -0.4870 -999.0000 -1.9 -999.0000 -999 0.0 -999.0000 -999.0000 1.233 12.8370 -999.0000 12.9 12.8 12.6400 0.0000 5.0000 7.0000
2022-01-15 16:00:00 2022-01-15 08:00:00 -999.0000 20.01 -999.00 -0.5660 -999.0000 -1.9 -999.0000 -999 0.0 -999.0000 -999.0000 1.234 12.8410 -999.0000 12.9 12.9 12.6400 0.0000 4.0000 4.0000
2022-01-15 16:15:00 2022-01-15 08:15:00 -999.0000 20.01 -999.00 -0.6280 -999.0000 -1.9 -999.0000 -999 0.0 -999.0000 -999.0000 1.234 12.8420 -999.0000 12.9 12.9 12.6500 0.0000 4.0000 4.0000
2022-01-15 16:30:00 2022-01-15 08:30:00 -999.0000 20.01 -999.00 -0.6680 -999.0000 -1.7 -999.0000 -999 0.0 -999.0000 -999.0000 1.234 12.8410 -999.0000 12.9 12.9 12.6400 0.0000 7.0000 4.0000
2022-01-15 16:45:00 2022-01-15 08:45:00 -999.0000 20.01 -999.00 -0.6110 -999.0000 -1.7 -999.0000 -999 0.0 -999.0000 -999.0000 1.232 12.8400 -999.0000 13.0 13.0 12.6400 0.5400 6.0000 3.0000
2022-01-15 17:00:00 2022-01-15 09:00:00 -999.0000 20.01 -999.00 -0.4310 -999.0000 -1.7 -999.0000 -999 0.0 -999.0000 -999.0000 1.235 12.8420 -999.0000 13.0 13.0 12.6500 1.2400 0.0000 2.0000
2022-01-15 17:15:00 2022-01-15 09:15:00 -999.0000 20.01 -999.00 -0.2230 -999.0000 -1.7 -999.0000 -999 0.0 -999.0000 -999.0000 1.235 12.8430 -999.0000 13.0 13.0 12.6500 1.2400 6.0000 2.0000
2022-01-15 17:30:00 2022-01-15 09:30:00 -999.0000 20.01 -999.00 -0.0010 -999.0000 -1.4 -999.0000 -999 0.0 -999.0000 -999.0000 1.234 12.8490 -999.0000 13.0 13.1 12.6500 5.5100 2.0000 9.0000
2022-01-15 17:45:00 2022-01-15 09:45:00 -999.0000 20.01 -999.00 0.1310 -999.0000 -1.4 -999.0000 -999 0.0 -999.0000 -999.0000 1.237 12.8500 -999.0000 13.1 13.1 12.6600 6.0900 2.0000 3.0000
2022-01-15 18:00:00 2022-01-15 10:00:00 -999.0000 20.01 -999.00 0.1850 -999.0000 -1.2 -999.0000 -999 0.0 -999.0000 -999.0000 1.236 12.8490 -999.0000 13.1 13.2 12.6400 6.3400 5.0000 8.0000
2022-01-15 18:15:00 2022-01-15 10:15:00 -999.0000 20.01 -999.00 0.2450 -999.0000 -0.8 -999.0000 -999 0.0 -999.0000 -999.0000 1.237 12.8520 -999.0000 13.1 13.2 12.6400 10.1300 4.0000 2.0000
2022-01-15 18:30:00 2022-01-15 10:30:00 -999.0000 20.01 -999.00 0.3720 -999.0000 -0.8 -999.0000 -999 0.0 -999.0000 -999.0000 1.235 12.8520 -999.0000 13.2 13.2 12.6400 9.2300 4.0000 10.0000
2022-01-15 18:45:00 2022-01-15 10:45:00 -999.0000 20.01 -999.00 0.4810 -999.0000 -0.8 -999.0000 -999 0.0 -999.0000 -999.0000 1.233 12.8540 -999.0000 13.2 13.2 12.6400 11.9900 6.0000 8.0000
2022-01-15 19:00:00 2022-01-15 11:00:00 -999.0000 20.01 -999.00 0.5210 -999.0000 -0.7 -999.0000 -999 0.0 -999.0000 -999.0000 1.235 12.8510 -999.0000 13.2 13.3 12.6600 11.6900 2.0000 10.0000
2022-01-15 19:15:00 2022-01-15 11:15:00 -999.0000 20.01 -999.00 0.6840 -999.0000 -0.5 -999.0000 -999 0.0 -999.0000 -999.0000 1.241 12.8530 -999.0000 13.2 13.2 12.6500 7.4600 6.0000 3.0000
2022-01-15 19:30:00 2022-01-15 11:30:00 -999.0000 20.01 -999.00 0.8620 -999.0000 -0.3 -999.0000 -999 0.0 -999.0000 -999.0000 1.229 12.8520 -999.0000 13.3 13.4 12.6600 8.9100 6.0000 9.0000
2022-01-15 19:45:00 2022-01-15 11:45:00 -999.0000 20.01 -999.00 0.9890 -999.0000 0.0 -999.0000 -999 0.0 -999.0000 -999.0000 1.193 12.8510 -999.0000 13.3 13.4 12.6500 8.7200 4.0000 7.0000
2022-01-15 20:00:00 2022-01-15 12:00:00 -999.0000 20.02 -999.00 1.0060 -999.0000 0.2 -999.0000 -999 0.0 -999.0000 -999.0000 1.215 12.8500 -999.0000 13.4 13.4 12.6500 8.3100 3.0000 8.0000
2022-01-15 20:15:00 2022-01-15 12:15:00 -999.0000 20.02 -999.00 0.9680 -999.0000 0.4 -999.0000 -999 0.0 -999.0000 -999.0000 1.220 12.8490 -999.0000 13.3 13.3 12.6400 6.2900 2.0000 8.0000
2022-01-15 20:30:00 2022-01-15 12:30:00 -999.0000 20.02 -999.00 1.0090 -999.0000 0.6 -999.0000 -999 0.0 -999.0000 -999.0000 1.215 12.8470 -999.0000 13.3 13.4 12.6500 9.4300 2.0000 5.0000
2022-01-15 20:45:00 2022-01-15 12:45:00 -999.0000 20.03 -999.00 1.1440 -999.0000 0.6 -999.0000 -999 0.0 -999.0000 -999.0000 1.206 12.8460 -999.0000 13.4 13.4 12.6400 6.5500 5.0000 1.0000
2022-01-15 21:00:00 2022-01-15 13:00:00 -999.0000 20.03 -999.00 1.0750 -999.0000 0.6 -999.0000 -999 0.0 -999.0000 -999.0000 1.211 12.8440 -999.0000 13.3 13.4 12.6600 5.3800 2.0000 9.0000
2022-01-15 21:15:00 2022-01-15 13:15:00 -999.0000 20.04 -999.00 1.0660 -999.0000 0.6 -999.0000 -999 0.0 -999.0000 -999.0000 1.212 12.8430 -999.0000 13.3 13.3 12.6400 3.1100 6.0000 4.0000
2022-01-15 21:30:00 2022-01-15 13:30:00 -999.0000 20.04 -999.00 0.9510 -999.0000 0.7 -999.0000 -999 0.0 -999.0000 -999.0000 1.202 12.8400 -999.0000 13.3 13.3 12.6400 3.1100 4.0000 4.0000
2022-01-15 21:45:00 2022-01-15 13:45:00 -999.0000 20.04 -999.00 0.9440 -999.0000 0.6 -999.0000 -999 0.0 -999.0000 -999.0000 1.197 12.8410 -999.0000 13.3 13.3 12.6400 4.0100 4.0000 5.0000
2022-01-15 22:00:00 2022-01-15 14:00:00 -999.0000 20.04 -999.00 1.0200 -999.0000 0.4 -999.0000 -999 0.0 -999.0000 -999.0000 1.211 12.8400 -999.0000 13.3 13.3 12.6400 3.2300 3.0000 9.0000
2022-01-15 22:15:00 2022-01-15 14:15:00 -999.0000 20.05 -999.00 0.9770 -999.0000 0.6 -999.0000 -999 0.0 -999.0000 -999.0000 1.201 12.8380 -999.0000 13.3 13.3 12.6400 3.2300 3.0000 9.0000
2022-01-15 22:30:00 2022-01-15 14:30:00 -999.0000 20.05 -999.00 1.0330 -999.0000 0.6 -999.0000 -999 0.0 -999.0000 -999.0000 1.201 12.8360 -999.0000 13.3 13.3 12.6600 3.5100 5.0000 2.0000
2022-01-15 22:45:00 2022-01-15 14:45:00 -999.0000 20.05 -999.00 1.0250 -999.0000 0.4 -999.0000 -999 0.0 -999.0000 -999.0000 1.205 12.8370 -999.0000 13.3 13.3 12.6600 3.5100 7.0000 2.0000
2022-01-15 23:00:00 2022-01-15 15:00:00 -999.0000 20.05 -999.00 1.0670 -999.0000 0.4 -999.0000 -999 0.0 -999.0000 -999.0000 1.219 12.8360 -999.0000 13.3 13.3 12.6500 2.8700 5.0000 6.0000
2022-01-15 23:15:00 2022-01-15 15:15:00 -999.0000 20.06 -999.00 1.0100 -999.0000 0.4 -999.0000 -999 0.0 -999.0000 -999.0000 1.214 12.8350 -999.0000 13.2 13.2 12.6500 0.8300 3.0000 8.0000
2022-01-15 23:30:00 2022-01-15 15:30:00 -999.0000 20.06 -999.00 0.9860 -999.0000 0.4 -999.0000 -999 0.0 -999.0000 -999.0000 1.169 12.8330 -999.0000 13.3 13.3 12.6400 0.7800 2.0000 7.0000
2022-01-15 23:45:00 2022-01-15 15:45:00 -999.0000 20.06 -999.00 0.9430 -999.0000 0.4 -999.0000 -999 0.0 -999.0000 -999.0000 1.218 12.8350 -999.0000 13.2 13.3 12.6500 0.0400 2.0000 0.0000
2022-01-16 00:00:00 2022-01-15 16:00:00 -999.0000 20.06 -999.00 0.7960 -999.0000 0.2 -999.0000 -999 0.0 -999.0000 -999.0000 1.168 12.8310 -999.0000 13.2 13.2 12.6500 0.0000 3.0000 1.0000
2022-01-16 00:15:00 2022-01-15 16:15:00 -999.0000 20.06 -999.00 0.6880 -999.0000 0.2 -999.0000 -999 0.0 -999.0000 -999.0000 1.168 12.8310 -999.0000 13.2 13.2 12.6400 0.0000 3.0000 10.0000
2022-01-16 00:30:00 2022-01-15 16:30:00 -999.0000 20.06 -999.00 0.4960 -999.0000 0.0 -999.0000 -999 0.0 -999.0000 -999.0000 1.177 12.8340 -999.0000 13.2 13.2 12.6500 0.0000 3.0000 8.0000
2022-01-16 00:45:00 2022-01-15 16:45:00 -999.0000 20.06 -999.00 0.3120 -999.0000 -0.1 -999.0000 -999 0.0 -999.0000 -999.0000 1.166 12.8370 -999.0000 13.1 13.0 12.6500 0.0000 3.0000 8.0000
2022-01-16 01:00:00 2022-01-15 17:00:00 -999.0000 20.06 -999.00 0.1040 -999.0000 -0.3 -999.0000 -999 0.0 -999.0000 -999.0000 1.168 12.8370 -999.0000 13.1 8.0 12.6400 0.0000 6.0000 6.0000
2022-01-16 01:15:00 2022-01-15 17:15:00 -999.0000 20.06 -999.00 -0.1220 -999.0000 -0.5 -999.0000 -999 0.0 -999.0000 -999.0000 1.164 12.8370 -999.0000 13.1 0.8 12.6400 0.0000 7.0000 6.0000
2022-01-16 01:30:00 2022-01-15 17:30:00 -999.0000 20.06 -999.00 -0.2150 -999.0000 -0.7 -999.0000 -999 0.0 -999.0000 -999.0000 1.176 12.8380 -999.0000 13.1 0.1 12.6400 0.0000 6.0000 9.0000
2022-01-16 01:45:00 2022-01-15 17:45:00 -999.0000 20.06 -999.00 -0.3240 -999.0000 -0.7 -999.0000 -999 0.0 -999.0000 -999.0000 1.166 12.8380 -999.0000 13.1 0.0 12.6400 0.0000 3.0000 7.0000
2022-01-16 02:00:00 2022-01-15 18:00:00 -999.0000 20.06 -999.00 -0.3990 -999.0000 -0.8 -999.0000 -999 0.0 -999.0000 -999.0000 1.175 12.8380 -999.0000 13.1 0.0 12.6600 0.0000 3.0000 10.0000
2022-01-16 02:15:00 2022-01-15 18:15:00 -999.0000 20.06 -999.00 -0.4890 -999.0000 -1.0 -999.0000 -999 0.0 -999.0000 -999.0000 1.175 12.8390 -999.0000 13.1 0.0 12.6400 0.0000 5.0000 5.0000
2022-01-16 02:30:00 2022-01-15 18:30:00 -999.0000 20.06 -999.00 -0.5790 -999.0000 -1.0 -999.0000 -999 0.0 -999.0000 -999.0000 1.184 12.8380 -999.0000 13.0 0.0 12.6400 0.0000 7.0000 8.0000
2022-01-16 02:45:00 2022-01-15 18:45:00 -999.0000 20.06 -999.00 -0.6520 -999.0000 -1.2 -999.0000 -999 0.0 -999.0000 -999.0000 1.187 12.8380 -999.0000 13.0 0.0 12.6400 0.0000 5.0000 11.0000
2022-01-16 03:00:00 2022-01-15 19:00:00 -999.0000 20.06 -999.00 -0.7160 -999.0000 -1.2 -999.0000 -999 0.0 -999.0000 -999.0000 1.183 12.8360 -999.0000 13.0 0.1 12.6400 0.0000 3.0000 7.0000
2022-01-16 03:15:00 2022-01-15 19:15:00 -999.0000 20.06 -999.00 -0.7580 -999.0000 -1.2 -999.0000 -999 0.0 -999.0000 -999.0000 1.186 12.8380 -999.0000 13.0 0.1 12.6400 0.0000 3.0000 5.0000
2022-01-16 03:30:00 2022-01-15 19:30:00 -999.0000 20.06 -999.00 -0.8170 -999.0000 -1.2 -999.0000 -999 0.0 -999.0000 -999.0000 1.182 12.8360 -999.0000 13.0 0.1 12.6600 0.0000 1.0000 9.0000
2022-01-16 03:45:00 2022-01-15 19:45:00 -999.0000 20.06 -999.00 -0.8420 -999.0000 -1.4 -999.0000 -999 0.0 -999.0000 -999.0000 1.180 12.8360 -999.0000 13.0 0.1 12.6400 0.0000 5.0000 4.0000
2022-01-16 04:00:00 2022-01-15 20:00:00 -999.0000 20.06 -999.00 -0.8750 -999.0000 -1.7 -999.0000 -999 0.0 -999.0000 -999.0000 1.182 12.8340 -999.0000 13.0 0.1 12.6400 0.0000 1.0000 8.0000
2022-01-16 04:15:00 2022-01-15 20:15:00 -999.0000 20.06 -999.00 -0.9170 -999.0000 -1.5 -999.0000 -999 0.0 -999.0000 -999.0000 1.188 12.8370 -999.0000 13.0 0.1 12.6400 0.0000 0.0000 4.0000
2022-01-16 04:30:00 2022-01-15 20:30:00 -999.0000 20.06 -999.00 -0.9490 -999.0000 -1.7 -999.0000 -999 0.0 -999.0000 -999.0000 1.180 12.8370 -999.0000 13.0 0.1 12.6600 0.0000 2.0000 5.0000
2022-01-16 04:45:00 2022-01-15 20:45:00 -999.0000 20.06 -999.00 -0.9490 -999.0000 -1.7 -999.0000 -999 0.0 -999.0000 -999.0000 1.179 12.8350 -999.0000 13.0 0.2 12.6500 0.0000 2.0000 8.0000
2022-01-16 05:00:00 2022-01-15 21:00:00 -999.0000 20.06 -999.00 -0.9900 -999.0000 -1.7 -999.0000 -999 0.0 -999.0000 -999.0000 1.182 12.8350 -999.0000 13.0 0.1 12.6400 0.0000 4.0000 3.0000
2022-01-16 05:15:00 2022-01-15 21:15:00 -999.0000 20.06 -999.00 -1.0500 -999.0000 -1.7 -999.0000 -999 0.0 -999.0000 -999.0000 1.177 12.8330 -999.0000 13.0 0.1 12.6400 0.0000 7.0000 4.0000
2022-01-16 05:30:00 2022-01-15 21:30:00 -999.0000 20.06 -999.00 -1.1070 -999.0000 -1.9 -999.0000 -999 0.0 -999.0000 -999.0000 1.178 12.8340 -999.0000 13.0 0.1 12.6400 0.0000 4.0000 10.0000
2022-01-16 05:45:00 2022-01-15 21:45:00 -999.0000 20.06 -999.00 -1.1680 -999.0000 -2.1 -999.0000 -999 0.0 -999.0000 -999.0000 1.176 12.8350 -999.0000 13.0 0.1 12.6500 0.0000 2.0000 1.0000
2022-01-16 06:00:00 2022-01-15 22:00:00 -999.0000 20.06 -999.00 -1.2430 -999.0000 -2.1 -999.0000 -999 0.0 -999.0000 -999.0000 1.176 12.8330 -999.0000 13.0 0.1 12.6400 0.0000 2.0000 7.0000
2022-01-16 06:15:00 2022-01-15 22:15:00 -999.0000 20.06 -999.00 -1.2910 -999.0000 -2.1 -999.0000 -999 0.0 -999.0000 -999.0000 1.174 12.8330 -999.0000 13.0 0.1 12.6600 0.0000 4.0000 5.0000
2022-01-16 06:30:00 2022-01-15 22:30:00 -999.0000 20.06 -999.00 -1.3680 -999.0000 -2.1 -999.0000 -999 0.0 -999.0000 -999.0000 1.170 12.8320 -999.0000 13.0 0.2 12.6400 0.0000 5.0000 5.0000
2022-01-16 06:45:00 2022-01-15 22:45:00 -999.0000 20.06 -999.00 -1.4240 -999.0000 -2.4 -999.0000 -999 0.0 -999.0000 -999.0000 1.169 12.8320 -999.0000 13.0 0.2 12.6400 0.0000 4.0000 4.0000
2022-01-16 07:00:00 2022-01-15 23:00:00 -999.0000 20.06 -999.00 -1.4450 -999.0000 -2.4 -999.0000 -999 0.0 -999.0000 -999.0000 1.167 12.8320 -999.0000 13.0 0.2 12.6500 0.0000 4.0000 8.0000
2022-01-16 07:15:00 2022-01-15 23:15:00 -999.0000 20.06 -999.00 -1.4970 -999.0000 -2.4 -999.0000 -999 0.0 -999.0000 -999.0000 1.167 12.8320 -999.0000 12.9 0.2 12.6500 0.0000 6.0000 5.0000
2022-01-16 07:30:00 2022-01-15 23:30:00 -999.0000 20.06 -999.00 -1.5450 -999.0000 -2.4 -999.0000 -999 0.0 -999.0000 -999.0000 1.170 12.8310 -999.0000 13.0 0.2 12.6400 0.0000 6.0000 6.0000
2022-01-16 07:45:00 2022-01-15 23:45:00 -999.0000 20.06 -999.00 -1.5870 -999.0000 -2.6 -999.0000 -999 0.0 -999.0000 -999.0000 1.174 12.8260 -999.0000 12.9 0.1 12.6400 0.0000 6.0000 6.0000
2022-01-16 08:00:00 2022-01-16 00:00:00 -999.0000 20.06 -999.00 -1.6410 -999.0000 -2.6 -999.0000 -999 0.0 -999.0000 -999.0000 1.172 12.8330 -999.0000 12.9 0.1 12.6600 0.0000 3.0000 6.0000
2022-01-16 08:15:00 2022-01-16 00:15:00 -999.0000 20.06 -999.00 -1.7210 -999.0000 -2.7 -999.0000 -999 0.0 -999.0000 -999.0000 1.174 12.8160 -999.0000 12.9 0.1 12.6400 0.0000 5.0000 10.0000
2022-01-16 08:30:00 2022-01-16 00:30:00 -999.0000 20.06 -999.00 -1.7770 -999.0000 -2.7 -999.0000 -999 0.0 -999.0000 -999.0000 1.175 12.8190 -999.0000 12.9 0.1 12.6600 0.0000 2.0000 6.0000
2022-01-16 08:45:00 2022-01-16 00:45:00 -999.0000 20.06 -999.00 -1.8470 -999.0000 -2.9 -999.0000 -999 0.0 -999.0000 -999.0000 1.176 12.8200 -999.0000 12.9 0.1 12.6400 0.0000 2.0000 3.0000
2022-01-16 09:00:00 2022-01-16 01:00:00 -999.0000 20.06 -999.00 -1.8840 -999.0000 -2.9 -999.0000 -999 0.0 -999.0000 -999.0000 1.177 12.8200 -999.0000 12.9 0.1 12.6400 0.0000 5.0000 7.0000
2022-01-16 09:15:00 2022-01-16 01:15:00 -999.0000 20.06 -999.00 -1.9450 -999.0000 -2.9 -999.0000 -999 0.0 -999.0000 -999.0000 1.174 12.8160 -999.0000 12.9 0.1 12.6500 0.0000 5.0000 5.0000
2022-01-16 09:30:00 2022-01-16 01:30:00 -999.0000 20.06 -999.00 -2.0010 -999.0000 -2.9 -999.0000 -999 0.0 -999.0000 -999.0000 1.181 12.8160 -999.0000 12.9 0.1 12.6400 0.0000 5.0000 6.0000
2022-01-16 09:45:00 2022-01-16 01:45:00 -999.0000 20.06 -999.00 -2.0400 -999.0000 -3.1 -999.0000 -999 0.0 -999.0000 -999.0000 1.176 12.8180 -999.0000 12.9 0.1 12.6400 0.0000 6.0000 9.0000
2022-01-16 10:00:00 2022-01-16 02:00:00 -999.0000 20.06 -999.00 -2.0340 -999.0000 -3.3 -999.0000 -999 0.0 -999.0000 -999.0000 1.181 12.8180 -999.0000 12.9 0.0 12.6500 0.0000 6.0000 3.0000
2022-01-16 10:15:00 2022-01-16 02:15:00 -999.0000 20.06 -999.00 -2.0220 -999.0000 -3.1 -999.0000 -999 0.0 -999.0000 -999.0000 1.182 12.8130 -999.0000 12.9 0.1 12.6400 0.0000 3.0000 10.0000
2022-01-16 10:30:00 2022-01-16 02:30:00 -999.0000 20.06 -999.00 -2.0420 -999.0000 -3.3 -999.0000 -999 0.0 -999.0000 -999.0000 1.179 12.8160 -999.0000 12.9 0.0 12.6400 0.0000 7.0000 6.0000
2022-01-16 10:45:00 2022-01-16 02:45:00 -999.0000 20.06 -999.00 -2.0310 -999.0000 -3.3 -999.0000 -999 0.0 -999.0000 -999.0000 1.181 12.8120 -999.0000 12.9 0.0 12.6400 0.0000 4.0000 8.0000
2022-01-16 11:00:00 2022-01-16 03:00:00 -999.0000 20.06 -999.00 -2.0050 -999.0000 -3.4 -999.0000 -999 0.0 -999.0000 -999.0000 1.181 12.8100 -999.0000 12.9 0.0 12.6500 0.0000 2.0000 7.0000
2022-01-16 11:15:00 2022-01-16 03:15:00 -999.0000 20.06 -999.00 -2.0310 -999.0000 -3.4 -999.0000 -999 0.0 -999.0000 -999.0000 1.181 12.8060 -999.0000 12.9 0.0 12.6400 0.0000 3.0000 4.0000
2022-01-16 11:30:00 2022-01-16 03:30:00 -999.0000 20.06 -999.00 -2.0190 -999.0000 -3.3 -999.0000 -999 0.0 -999.0000 -999.0000 1.181 12.8080 -999.0000 12.9 0.0 12.6400 0.0000 3.0000 7.0000
2022-01-16 11:45:00 2022-01-16 03:45:00 -999.0000 20.06 -999.00 -1.9870 -999.0000 -3.4 -999.0000 -999 0.0 -999.0000 -999.0000 1.184 12.8060 -999.0000 12.9 0.0 12.6400 0.0000 5.0000 4.0000
2022-01-16 12:00:00 2022-01-16 04:00:00 -999.0000 20.06 -999.00 -2.0290 -999.0000 -3.4 -999.0000 -999 0.0 -999.0000 -999.0000 1.180 12.8060 -999.0000 12.9 0.0 12.6400 0.0000 6.0000 4.0000
2022-01-16 12:15:00 2022-01-16 04:15:00 -999.0000 20.06 -999.00 -2.0130 -999.0000 -3.4 -999.0000 -999 0.0 -999.0000 -999.0000 1.182 12.8060 -999.0000 12.9 0.0 12.6400 0.0000 4.0000 7.0000
2022-01-16 12:30:00 2022-01-16 04:30:00 -999.0000 20.06 -999.00 -1.9250 -999.0000 -3.4 -999.0000 -999 0.0 -999.0000 -999.0000 1.183 12.8080 -999.0000 12.9 0.0 12.6400 0.0000 4.0000 5.0000
2022-01-16 12:45:00 2022-01-16 04:45:00 -999.0000 20.06 -999.00 -1.8070 -999.0000 -3.3 -999.0000 -999 0.0 -999.0000 -999.0000 1.179 12.8080 -999.0000 12.9 0.0 12.6400 0.0000 3.0000 7.0000
2022-01-16 13:00:00 2022-01-16 05:00:00 -999.0000 20.06 -999.00 -1.6640 -999.0000 -3.4 -999.0000 -999 0.0 -999.0000 -999.0000 1.181 12.8070 -999.0000 12.9 0.1 12.6400 0.0000 3.0000 9.0000
2022-01-16 13:15:00 2022-01-16 05:15:00 -999.0000 20.06 -999.00 -1.5730 -999.0000 -3.3 -999.0000 -999 0.0 -999.0000 -999.0000 1.182 12.8060 -999.0000 12.9 0.0 12.6400 0.0000 4.0000 7.0000
2022-01-16 13:30:00 2022-01-16 05:30:00 -999.0000 20.06 -999.00 -1.4680 -999.0000 -3.1 -999.0000 -999 0.0 -999.0000 -999.0000 1.186 12.8060 -999.0000 12.9 0.0 12.6400 0.0000 4.0000 8.0000
2022-01-16 13:45:00 2022-01-16 05:45:00 -999.0000 20.06 -999.00 -1.3400 -999.0000 -3.1 -999.0000 -999 0.0 -999.0000 -999.0000 1.184 12.8050 -999.0000 12.9 0.0 12.6400 0.0000 6.0000 2.0000
2022-01-16 14:00:00 2022-01-16 06:00:00 -999.0000 20.06 -999.00 -1.2350 -999.0000 -3.3 -999.0000 -999 0.0 -999.0000 -999.0000 1.178 12.8080 -999.0000 12.9 0.0 12.6600 0.0000 3.0000 5.0000
2022-01-16 14:15:00 2022-01-16 06:15:00 -999.0000 20.06 -999.00 -1.1250 -999.0000 -2.9 -999.0000 -999 0.0 -999.0000 -999.0000 1.179 12.8090 -999.0000 12.9 0.0 12.6400 0.0000 4.0000 2.0000
2022-01-16 14:30:00 2022-01-16 06:30:00 -999.0000 20.06 -999.00 -1.0170 -999.0000 -2.9 -999.0000 -999 0.0 -999.0000 -999.0000 1.183 12.8070 -999.0000 12.9 0.0 12.6400 0.0000 4.0000 4.0000
2022-01-16 14:45:00 2022-01-16 06:45:00 -999.0000 20.06 -999.00 -0.9020 -999.0000 -2.7 -999.0000 -999 0.0 -999.0000 -999.0000 1.180 12.8060 -999.0000 12.9 0.0 12.6600 0.0000 3.0000 3.0000
2022-01-16 15:00:00 2022-01-16 07:00:00 -999.0000 20.06 -999.00 -0.8100 -999.0000 -2.7 -999.0000 -999 0.0 -999.0000 -999.0000 1.185 12.8050 -999.0000 12.9 0.1 12.6400 0.0000 5.0000 2.0000
2022-01-16 15:15:00 2022-01-16 07:15:00 -999.0000 20.06 -999.00 -0.7440 -999.0000 -2.6 -999.0000 -999 0.0 -999.0000 -999.0000 1.183 12.8060 -999.0000 12.9 0.8 12.6500 0.0000 2.0000 8.0000
2022-01-16 15:30:00 2022-01-16 07:30:00 -999.0000 20.06 -999.00 -0.7050 -999.0000 -2.4 -999.0000 -999 0.0 -999.0000 -999.0000 1.186 12.8070 -999.0000 12.9 7.4 12.6400 0.0000 5.0000 0.0000
2022-01-16 15:45:00 2022-01-16 07:45:00 -999.0000 20.06 -999.00 -0.6560 -999.0000 -2.4 -999.0000 -999 0.0 -999.0000 -999.0000 1.182 12.8080 -999.0000 12.9 12.8 12.6500 0.0000 3.0000 6.0000
2022-01-16 16:00:00 2022-01-16 08:00:00 -999.0000 20.06 -999.00 -0.5910 -999.0000 -2.4 -999.0000 -999 0.0 -999.0000 -999.0000 1.177 12.8080 -999.0000 12.9 12.9 12.6400 0.0000 4.0000 0.0000
2022-01-16 16:15:00 2022-01-16 08:15:00 -999.0000 20.06 -999.00 -0.5090 -999.0000 -2.2 -999.0000 -999 0.0 -999.0000 -999.0000 1.182 12.8080 -999.0000 12.9 12.9 12.6400 0.0000 4.0000 5.0000
2022-01-16 16:30:00 2022-01-16 08:30:00 -999.0000 20.06 -999.00 -0.4220 -999.0000 -2.1 -999.0000 -999 0.0 -999.0000 -999.0000 1.185 12.8090 -999.0000 12.9 12.9 12.6500 0.0000 2.0000 3.0000
2022-01-16 16:45:00 2022-01-16 08:45:00 -999.0000 20.06 -999.00 -0.2490 -999.0000 -2.1 -999.0000 -999 0.0 -999.0000 -999.0000 1.181 12.8080 -999.0000 12.9 13.0 12.6500 0.3100 3.0000 5.0000
2022-01-16 17:00:00 2022-01-16 09:00:00 -999.0000 20.06 -999.00 -0.0890 -999.0000 -1.9 -999.0000 -999 0.0 -999.0000 -999.0000 1.182 12.8070 -999.0000 13.0 13.0 12.6400 1.5900 4.0000 5.0000
2022-01-16 17:15:00 2022-01-16 09:15:00 -999.0000 20.06 -999.00 0.0420 -999.0000 -1.7 -999.0000 -999 0.0 -999.0000 -999.0000 1.182 12.8070 -999.0000 13.0 13.0 12.6400 0.5900 3.0000 4.0000
2022-01-16 17:30:00 2022-01-16 09:30:00 -999.0000 20.06 -999.00 0.1790 -999.0000 -1.5 -999.0000 -999 0.0 -999.0000 -999.0000 1.180 12.8060 -999.0000 13.0 13.0 12.6400 5.6100 0.0000 8.0000
2022-01-16 17:45:00 2022-01-16 09:45:00 -999.0000 20.06 -999.00 0.3010 -999.0000 -1.4 -999.0000 -999 0.0 -999.0000 -999.0000 1.176 12.8050 -999.0000 13.0 13.1 12.6400 5.9400 0.0000 4.0000
2022-01-16 18:00:00 2022-01-16 10:00:00 -999.0000 20.06 -999.00 0.5350 -999.0000 -1.2 -999.0000 -999 0.0 -999.0000 -999.0000 1.178 12.8040 -999.0000 13.2 13.2 12.6400 11.4100 1.0000 7.0000
2022-01-16 18:15:00 2022-01-16 10:15:00 -999.0000 20.06 -999.00 0.8760 -999.0000 -0.8 -999.0000 -999 0.0 -999.0000 -999.0000 1.178 12.8050 -999.0000 13.2 13.2 12.6400 11.1700 1.0000 2.0000
2022-01-16 18:30:00 2022-01-16 10:30:00 -999.0000 20.06 -999.00 1.1930 -999.0000 -0.7 -999.0000 -999 0.0 -999.0000 -999.0000 1.175 12.8080 -999.0000 13.3 13.4 12.6400 11.7500 2.0000 4.0000
2022-01-16 18:45:00 2022-01-16 10:45:00 -999.0000 20.07 -999.00 1.6620 -999.0000 -0.3 -999.0000 -999 0.0 -999.0000 -999.0000 1.173 12.8060 -999.0000 13.4 13.5 12.6400 11.7500 3.0000 4.0000
2022-01-16 19:00:00 2022-01-16 11:00:00 -999.0000 20.07 -999.00 1.9520 -999.0000 0.0 -999.0000 -999 0.0 -999.0000 -999.0000 1.177 12.8050 -999.0000 13.4 13.5 12.6400 12.2600 0.0000 2.0000
2022-01-16 19:15:00 2022-01-16 11:15:00 -999.0000 20.08 -999.00 2.1690 -999.0000 0.6 -999.0000 -999 0.0 -999.0000 -999.0000 1.188 12.8060 -999.0000 13.4 13.4 -999.0000 -999.0000 2.0000 -999.0000
2022-01-16 19:30:00 2022-01-16 11:30:00 -999.0000 20.09 -999.00 2.1370 -999.0000 0.9 -999.0000 -999 0.0 -999.0000 -999.0000 1.179 12.8050 -999.0000 13.4 13.5 -999.0000 -999.0000 2.0000 -999.0000
2022-01-16 19:45:00 2022-01-16 11:45:00 -999.0000 20.10 -999.00 2.2940 -999.0000 1.1 -999.0000 -999 0.0 -999.0000 -999.0000 1.176 12.8070 -999.0000 13.5 13.6 12.6400 11.5100 4.0000 7.0000
2022-01-16 20:00:00 2022-01-16 12:00:00 -999.0000 20.11 -999.00 2.4900 -999.0000 1.2 -999.0000 -999 0.0 -999.0000 -999.0000 1.182 12.8070 -999.0000 13.4 13.5 12.6400 11.2100 4.0000 4.0000
2022-01-16 20:15:00 2022-01-16 12:15:00 -999.0000 20.13 -999.00 2.3950 -999.0000 1.6 -999.0000 -999 0.0 -999.0000 -999.0000 1.191 12.8080 -999.0000 13.4 13.5 12.6400 11.2100 5.0000 4.0000
2022-01-16 20:30:00 2022-01-16 12:30:00 -999.0000 20.13 -999.00 2.4360 -999.0000 1.8 -999.0000 -999 0.0 -999.0000 -999.0000 1.179 12.8050 -999.0000 13.4 13.5 12.6500 10.0600 5.0000 8.0000
2022-01-16 20:45:00 2022-01-16 12:45:00 -999.0000 20.14 -999.00 2.4450 -999.0000 1.9 -999.0000 -999 0.0 -999.0000 -999.0000 1.183 12.8030 -999.0000 13.4 13.5 12.6400 11.4100 5.0000 7.0000
2022-01-16 21:00:00 2022-01-16 13:00:00 -999.0000 20.15 -999.00 2.6210 -999.0000 1.9 -999.0000 -999 0.0 -999.0000 -999.0000 1.210 12.8010 -999.0000 13.4 13.5 12.6400 11.3900 2.0000 4.0000
2022-01-16 21:15:00 2022-01-16 13:15:00 -999.0000 20.17 -999.00 2.6610 -999.0000 2.1 -999.0000 -999 0.0 -999.0000 -999.0000 1.204 12.7990 -999.0000 13.4 13.4 12.6400 8.1600 4.0000 5.0000
2022-01-16 21:30:00 2022-01-16 13:30:00 -999.0000 20.17 -999.00 2.5290 -999.0000 2.1 -999.0000 -999 0.0 -999.0000 -999.0000 1.199 12.7980 -999.0000 13.4 13.4 12.6400 8.7500 5.0000 4.0000
2022-01-16 21:45:00 2022-01-16 13:45:00 -999.0000 20.18 -999.00 2.3760 -999.0000 2.1 -999.0000 -999 0.0 -999.0000 -999.0000 1.208 12.7940 -999.0000 13.4 13.4 12.6400 7.2000 5.0000 6.0000
2022-01-16 22:00:00 2022-01-16 14:00:00 -999.0000 20.19 -999.00 2.3330 -999.0000 1.9 -999.0000 -999 0.0 -999.0000 -999.0000 1.201 12.7900 -999.0000 13.4 13.5 12.6400 10.6100 4.0000 4.0000
2022-01-16 22:15:00 2022-01-16 14:15:00 -999.0000 20.20 -999.00 2.4430 -999.0000 1.9 -999.0000 -999 0.0 -999.0000 -999.0000 1.203 12.7880 -999.0000 13.4 13.4 12.6400 11.1500 6.0000 10.0000
2022-01-16 22:30:00 2022-01-16 14:30:00 -999.0000 20.21 -999.00 2.4420 -999.0000 1.9 -999.0000 -999 0.0 -999.0000 -999.0000 1.205 12.7860 -999.0000 13.4 13.4 12.6400 11.4000 6.0000 5.0000
2022-01-16 22:45:00 2022-01-16 14:45:00 -999.0000 20.22 -999.00 2.4470 -999.0000 1.8 -999.0000 -999 0.0 -999.0000 -999.0000 1.202 12.7860 -999.0000 13.3 13.4 12.6400 8.0300 6.0000 9.0000
2022-01-16 23:00:00 2022-01-16 15:00:00 -999.0000 20.23 -999.00 2.3570 -999.0000 1.6 -999.0000 -999 0.0 -999.0000 -999.0000 1.202 12.7820 -999.0000 13.3 13.4 12.6400 7.9500 6.0000 9.0000
2022-01-16 23:15:00 2022-01-16 15:15:00 0.1849 20.24 -999.00 2.3270 2.2010 1.4 -999.0000 -999 0.0 16.7090 -999.0000 1.199 12.7830 12.8630 13.3 13.3 12.6600 7.2000 3.0000 9.0000
2022-01-16 23:30:00 2022-01-16 15:30:00 -999.0000 20.24 -999.00 2.2700 -999.0000 1.4 -999.0000 -999 0.0 -999.0000 -999.0000 1.196 12.7800 -999.0000 13.3 13.3 12.6400 5.1900 5.0000 7.0000
2022-01-16 23:45:00 2022-01-16 15:45:00 0.1941 20.25 -999.00 2.1600 2.1990 1.2 -999.0000 -999 0.0 16.6910 -999.0000 1.196 12.7760 12.8600 13.3 13.3 12.6600 4.1800 5.0000 1.0000
2022-01-17 00:00:00 2022-01-16 16:00:00 0.2080 20.26 -999.00 2.0990 2.1820 1.1 -999.0000 -999 0.0 16.6740 -999.0000 1.196 12.7790 12.8690 13.3 13.3 12.6600 4.1800 5.0000 1.0000
2022-01-17 00:15:00 2022-01-16 16:15:00 -999.0000 20.26 -999.00 1.9830 -999.0000 0.9 -999.0000 -999 0.0 -999.0000 -999.0000 1.198 12.7810 -999.0000 13.2 13.2 12.6400 0.0200 6.0000 9.0000
2022-01-17 00:30:00 2022-01-16 16:30:00 -999.0000 20.27 -999.00 1.9200 -999.0000 0.9 -999.0000 -999 0.0 -999.0000 -999.0000 1.194 12.7790 -999.0000 13.2 13.2 12.6400 0.0000 6.0000 4.0000
2022-01-17 00:45:00 2022-01-16 16:45:00 0.1987 20.27 -999.00 1.7850 2.1020 0.7 -999.0000 -999 0.0 16.6430 -999.0000 1.194 12.7820 12.8680 13.2 13.2 12.6300 0.0000 7.0000 6.0000
2022-01-17 01:00:00 2022-01-16 17:00:00 -999.0000 20.27 -999.00 1.6040 -999.0000 0.6 -999.0000 -999 0.0 -999.0000 -999.0000 1.189 12.7810 -999.0000 13.2 12.0 12.6500 0.0000 2.0000 3.0000
2022-01-17 01:15:00 2022-01-16 17:15:00 -999.0000 20.27 -999.00 1.4470 -999.0000 0.4 -999.0000 -999 0.0 -999.0000 -999.0000 1.193 12.7800 -999.0000 13.1 1.7 12.6400 0.0000 5.0000 8.0000
2022-01-17 01:30:00 2022-01-16 17:30:00 -999.0000 20.28 -999.00 1.3380 -999.0000 0.4 -999.0000 -999 0.0 -999.0000 -999.0000 1.192 12.7790 -999.0000 13.1 0.2 12.6400 0.0000 4.0000 8.0000
2022-01-17 01:45:00 2022-01-16 17:45:00 -999.0000 20.28 -999.00 1.2760 -999.0000 0.2 -999.0000 -999 0.0 -999.0000 -999.0000 1.194 12.7770 -999.0000 13.1 0.1 12.6400 0.0000 3.0000 9.0000
2022-01-17 02:00:00 2022-01-16 18:00:00 -999.0000 20.28 -999.00 1.2200 -999.0000 0.0 -999.0000 -999 0.0 -999.0000 -999.0000 1.194 12.7750 -999.0000 13.1 0.0 12.6400 0.0000 3.0000 9.0000
2022-01-17 02:15:00 2022-01-16 18:15:00 -999.0000 20.28 -999.00 1.1870 -999.0000 -0.1 -999.0000 -999 0.0 -999.0000 -999.0000 1.193 12.7710 -999.0000 13.1 0.0 12.6400 0.0000 4.0000 0.0000
2022-01-17 02:30:00 2022-01-16 18:30:00 -999.0000 20.28 -999.00 1.1220 -999.0000 -0.1 -999.0000 -999 0.0 -999.0000 -999.0000 1.195 12.7700 -999.0000 13.1 0.0 12.6400 0.0000 6.0000 4.0000
2022-01-17 02:45:00 2022-01-16 18:45:00 -999.0000 20.28 -999.00 1.0850 -999.0000 -0.1 -999.0000 -999 0.0 -999.0000 -999.0000 1.194 12.7690 -999.0000 13.1 0.1 12.6400 0.0000 6.0000 4.0000
2022-01-17 03:00:00 2022-01-16 19:00:00 -999.0000 20.28 -999.00 1.0540 -999.0000 -0.5 -999.0000 -999 0.0 -999.0000 -999.0000 1.196 12.7710 -999.0000 13.1 0.1 12.6400 0.0000 6.0000 11.0000
2022-01-17 03:15:00 2022-01-16 19:15:00 -999.0000 20.28 -999.00 1.0790 -999.0000 -0.3 -999.0000 -999 0.0 -999.0000 -999.0000 1.193 12.7720 -999.0000 13.1 0.1 12.6400 0.0000 6.0000 7.0000
2022-01-17 03:30:00 2022-01-16 19:30:00 -999.0000 20.29 -999.00 1.1050 -999.0000 -0.3 -999.0000 -999 0.0 -999.0000 -999.0000 1.196 12.7710 -999.0000 13.1 0.1 12.6400 0.0000 6.0000 11.0000
2022-01-17 03:45:00 2022-01-16 19:45:00 -999.0000 20.29 -999.00 1.1450 -999.0000 -0.5 -999.0000 -999 0.0 -999.0000 -999.0000 1.195 12.7720 -999.0000 13.1 0.1 12.6300 0.0000 6.0000 8.0000
2022-01-17 04:00:00 2022-01-16 20:00:00 -999.0000 20.29 -999.00 1.1550 -999.0000 -0.5 -999.0000 -999 0.0 -999.0000 -999.0000 1.194 12.7700 -999.0000 13.1 0.1 12.6400 0.0000 6.0000 9.0000
2022-01-17 04:15:00 2022-01-16 20:15:00 -999.0000 20.29 -999.00 1.1850 -999.0000 -0.3 -999.0000 -999 0.0 -999.0000 -999.0000 1.195 12.7690 -999.0000 13.1 0.1 12.6400 0.0000 7.0000 6.0000
2022-01-17 04:30:00 2022-01-16 20:30:00 -999.0000 20.29 -999.00 1.1940 -999.0000 -0.3 -999.0000 -999 0.0 -999.0000 -999.0000 1.194 12.7680 -999.0000 13.1 0.1 12.6500 0.0000 7.0000 2.0000
2022-01-17 04:45:00 2022-01-16 20:45:00 -999.0000 20.29 -999.00 1.2100 -999.0000 -0.5 -999.0000 -999 0.0 -999.0000 -999.0000 1.195 12.7670 -999.0000 13.1 0.1 12.6500 0.0000 6.0000 9.0000
2022-01-17 05:00:00 2022-01-16 21:00:00 -999.0000 20.30 -999.00 1.2220 -999.0000 -0.5 -999.0000 -999 0.0 -999.0000 -999.0000 1.194 12.7660 -999.0000 13.1 0.1 12.6500 0.0000 7.0000 3.0000
2022-01-17 05:15:00 2022-01-16 21:15:00 -999.0000 20.30 -999.00 1.1700 -999.0000 -0.3 -999.0000 -999 0.0 -999.0000 -999.0000 1.194 12.7640 -999.0000 13.1 0.2 12.6400 0.0000 5.0000 10.0000
2022-01-17 05:30:00 2022-01-16 21:30:00 -999.0000 20.30 -999.00 1.1870 -999.0000 -0.3 -999.0000 -999 0.0 -999.0000 -999.0000 1.197 12.7630 -999.0000 13.0 0.1 12.6400 0.0000 6.0000 2.0000
2022-01-17 05:45:00 2022-01-16 21:45:00 -999.0000 20.30 -999.00 1.2410 -999.0000 -0.5 -999.0000 -999 0.0 -999.0000 -999.0000 1.193 12.7620 -999.0000 13.0 0.1 12.6300 0.0000 7.0000 9.0000
2022-01-17 06:00:00 2022-01-16 22:00:00 -999.0000 20.30 -999.00 1.2700 -999.0000 -0.5 -999.0000 -999 0.0 -999.0000 -999.0000 1.195 12.7610 -999.0000 13.1 0.1 12.6600 0.0000 6.0000 3.0000
2022-01-17 06:15:00 2022-01-16 22:15:00 0.2057 20.30 -999.00 1.2900 1.8670 -0.5 -999.0000 -999 0.0 16.4440 -999.0000 1.197 12.7620 12.8510 13.0 0.1 12.6600 0.0000 1.0000 3.0000
2022-01-17 06:30:00 2022-01-16 22:30:00 0.1964 20.31 -999.00 1.2990 1.8680 -0.5 -999.0000 -999 0.0 16.3920 -999.0000 1.196 12.7610 12.8460 13.0 0.1 12.6400 0.0000 2.0000 7.0000
2022-01-17 06:45:00 2022-01-16 22:45:00 0.1987 20.31 -999.00 1.3170 1.8700 -0.5 -999.0000 -999 0.0 16.4450 -999.0000 1.193 12.7620 12.8480 13.0 0.1 12.6400 0.0000 7.0000 3.0000
2022-01-17 07:00:00 2022-01-16 23:00:00 0.2034 20.31 -999.00 1.3370 1.8740 -0.5 -999.0000 -999 0.0 16.4380 -999.0000 1.194 12.7610 12.8490 13.0 0.1 12.6400 0.0000 5.0000 7.0000
2022-01-17 07:15:00 2022-01-16 23:15:00 0.1987 20.31 -999.00 1.3530 1.8790 -0.3 -999.0000 -999 0.0 16.4330 -999.0000 1.190 12.7600 12.8460 13.1 0.1 12.6400 0.0000 7.0000 5.0000
2022-01-17 07:30:00 2022-01-16 23:30:00 0.2080 20.31 -999.00 1.3580 1.8840 -0.3 -999.0000 -999 0.0 16.4320 -999.0000 1.192 12.7590 12.8490 13.0 0.1 12.6400 0.0000 5.0000 10.0000
2022-01-17 07:45:00 2022-01-16 23:45:00 -999.0000 20.32 -999.00 1.2710 -999.0000 -0.3 -999.0000 -999 0.0 -999.0000 -999.0000 1.192 12.7570 -999.0000 13.0 0.1 12.6400 0.0000 3.0000 8.0000
2022-01-17 08:00:00 2022-01-17 00:00:00 0.2034 20.32 -999.00 1.1040 1.8670 -0.5 -999.0000 -999 0.0 16.4150 -999.0000 1.193 12.7540 12.8420 13.0 0.1 12.6400 0.0000 3.0000 8.0000
2022-01-17 08:15:00 2022-01-17 00:15:00 0.2010 20.32 -999.00 1.0530 1.8520 -0.5 -999.0000 -999 0.0 16.3950 -999.0000 1.191 12.7510 12.8380 13.0 0.1 12.6400 0.0000 1.0000 6.0000
2022-01-17 08:30:00 2022-01-17 00:30:00 0.2034 20.32 -999.00 1.0310 1.8390 -0.5 -999.0000 -999 0.0 16.3870 -999.0000 1.189 12.7490 12.8370 13.0 0.1 12.6400 0.0000 7.0000 1.0000
2022-01-17 08:45:00 2022-01-17 00:45:00 0.2034 20.32 -999.00 1.0260 1.8300 -0.5 -999.0000 -999 0.0 16.3770 -999.0000 1.190 12.7490 12.8370 13.0 0.1 12.6400 0.0000 2.0000 12.0000
2022-01-17 09:00:00 2022-01-17 01:00:00 0.2034 20.32 -999.00 1.0140 1.8250 -0.5 -999.0000 -999 0.0 16.3670 -999.0000 1.191 12.7500 12.8380 13.1 0.1 12.6400 0.0000 7.0000 3.0000
2022-01-17 09:15:00 2022-01-17 01:15:00 0.2010 20.32 -999.00 1.0100 1.8260 -0.5 -999.0000 -999 0.0 16.3670 -999.0000 1.188 12.7490 12.8360 13.0 0.1 12.6500 0.0000 1.0000 5.0000
2022-01-17 09:30:00 2022-01-17 01:30:00 0.2010 20.32 -999.00 0.9330 1.8230 -0.5 -999.0000 -999 0.0 16.3740 -999.0000 1.190 12.7460 12.8330 13.0 0.1 12.6400 0.0000 7.0000 3.0000
2022-01-17 09:45:00 2022-01-17 01:45:00 0.1987 20.32 -999.00 0.9210 1.8130 -0.5 -999.0000 -999 0.0 16.4290 -999.0000 1.194 12.7450 12.8310 13.0 0.1 12.6400 0.0000 7.0000 3.0000
2022-01-17 10:00:00 2022-01-17 02:00:00 0.1964 20.32 -999.00 0.9410 1.8110 -0.7 -999.0000 -999 0.0 16.4330 -999.0000 1.189 12.7450 12.8300 13.0 0.1 12.6400 0.0000 7.0000 10.0000
2022-01-17 10:15:00 2022-01-17 02:15:00 0.1987 20.33 -999.00 0.9160 1.8120 -0.5 -999.0000 -999 0.0 16.4310 -999.0000 1.184 12.7440 12.8300 13.0 0.1 12.6400 0.0000 6.0000 12.0000
2022-01-17 10:30:00 2022-01-17 02:30:00 0.2010 20.33 -999.00 0.8470 1.8100 -0.5 -999.0000 -999 0.0 16.4230 -999.0000 1.185 12.7430 12.8300 13.0 0.1 12.6500 0.0000 5.0000 2.0000
2022-01-17 10:45:00 2022-01-17 02:45:00 0.2010 20.33 -999.00 0.8580 1.8070 -0.7 -999.0000 -999 0.0 16.4350 -999.0000 1.188 12.7440 12.8310 13.0 0.1 12.6400 0.0000 6.0000 8.0000
2022-01-17 11:00:00 2022-01-17 03:00:00 0.2034 20.33 -999.00 0.8970 1.8100 -0.7 -999.0000 -999 0.0 16.4410 -999.0000 1.184 12.7440 12.8320 13.0 0.1 12.6300 0.0000 6.0000 5.0000
2022-01-17 11:15:00 2022-01-17 03:15:00 0.2010 20.33 -999.00 0.8600 1.8100 -0.7 -999.0000 -999 0.0 16.4640 -999.0000 1.184 12.7410 12.8280 13.0 0.1 12.6400 0.0000 7.0000 10.0000
2022-01-17 11:30:00 2022-01-17 03:30:00 0.2057 20.33 -999.00 0.8150 1.8080 -0.5 -999.0000 -999 0.0 16.4800 -999.0000 1.190 12.7380 12.8270 13.0 0.1 12.6400 0.0000 7.0000 4.0000
2022-01-17 11:45:00 2022-01-17 03:45:00 0.2010 20.33 -999.00 0.7920 1.8020 -0.7 -999.0000 -999 0.0 16.4700 -999.0000 1.189 12.7370 12.8240 13.0 0.1 12.6400 0.0000 6.0000 10.0000
2022-01-17 12:00:00 2022-01-17 04:00:00 0.1987 20.33 -999.00 0.8390 1.8000 -0.7 -999.0000 -999 0.0 16.4600 -999.0000 1.190 12.7340 12.8200 13.0 0.1 12.6500 0.0000 7.0000 9.0000
2022-01-17 12:15:00 2022-01-17 04:15:00 0.2010 20.33 -999.00 0.8940 1.8000 -0.7 -999.0000 -999 0.0 16.4360 -999.0000 1.191 12.7330 12.8200 13.0 0.0 12.6400 0.0000 6.0000 3.0000
2022-01-17 12:30:00 2022-01-17 04:30:00 0.2057 20.33 -999.00 0.8820 1.8010 -0.7 -999.0000 -999 0.0 16.4480 -999.0000 1.189 12.7310 12.8200 13.0 0.1 12.6400 0.0000 7.0000 12.0000
2022-01-17 12:45:00 2022-01-17 04:45:00 0.2057 20.33 -999.00 0.8750 1.8000 -0.7 -999.0000 -999 0.0 16.4340 -999.0000 1.187 12.7280 12.8170 13.0 0.1 12.6400 0.0000 7.0000 11.0000
2022-01-17 13:00:00 2022-01-17 05:00:00 0.2057 20.33 -999.00 0.8850 1.7950 -0.7 -999.0000 -999 0.0 16.4250 -999.0000 1.188 12.7260 12.8150 13.0 0.1 12.6400 0.0000 2.0000 3.0000
2022-01-17 13:15:00 2022-01-17 05:15:00 0.2034 20.33 -999.00 0.8550 1.7920 -0.7 -999.0000 -999 0.0 16.4090 -999.0000 1.189 12.7260 12.8140 12.9 0.1 12.6400 0.0000 7.0000 1.0000
2022-01-17 13:30:00 2022-01-17 05:30:00 0.1941 20.33 -999.00 0.8260 1.7860 -0.7 -999.0000 -999 0.0 16.3890 -999.0000 1.188 12.7260 12.8100 13.0 0.1 12.6400 0.0000 7.0000 1.0000
2022-01-17 13:45:00 2022-01-17 05:45:00 0.1987 20.33 -999.00 0.8200 1.7830 -0.7 -999.0000 -999 0.0 16.3940 -999.0000 1.185 12.7230 12.8090 13.0 0.1 12.6400 0.0000 5.0000 2.0000
2022-01-17 14:00:00 2022-01-17 06:00:00 0.1964 20.33 -999.00 0.7560 1.7810 -0.8 -999.0000 -999 0.0 16.3930 -999.0000 1.189 12.7230 12.8080 13.0 0.0 12.6400 0.0000 2.0000 10.0000
2022-01-17 14:15:00 2022-01-17 06:15:00 0.1964 20.33 -999.00 0.7830 1.7790 -0.7 -999.0000 -999 0.0 16.3870 -999.0000 1.187 12.7220 12.8070 12.9 0.0 12.6400 0.0000 7.0000 11.0000
2022-01-17 14:30:00 2022-01-17 06:30:00 0.1987 20.33 -999.00 0.8080 1.7760 -0.7 -999.0000 -999 0.0 16.3790 -999.0000 1.189 12.7210 12.8070 12.9 0.1 12.6400 0.0000 2.0000 4.0000
2022-01-17 14:45:00 2022-01-17 06:45:00 0.1964 20.33 -999.00 0.7930 1.7790 -0.7 -999.0000 -999 0.0 16.3740 -999.0000 1.185 12.7220 12.8070 12.9 0.1 12.6400 0.0000 6.0000 10.0000
2022-01-17 15:00:00 2022-01-17 07:00:00 0.2010 20.33 -999.00 0.7500 1.7780 -0.7 -999.0000 -999 0.0 16.3640 -999.0000 1.187 12.7200 12.8070 12.9 0.1 12.6400 0.0000 7.0000 9.0000
2022-01-17 15:15:00 2022-01-17 07:15:00 0.1941 20.33 -999.00 0.7810 1.7780 -0.7 -999.0000 -999 0.0 16.3590 -999.0000 1.191 12.7210 12.8050 12.9 0.8 12.6400 0.0000 7.0000 11.0000
2022-01-17 15:30:00 2022-01-17 07:30:00 0.2057 20.33 -999.00 0.7990 1.7770 -0.7 -999.0000 -999 0.0 16.3570 -999.0000 1.187 12.7210 12.8100 12.9 8.0 12.6400 0.0000 8.0000 11.0000
2022-01-17 15:45:00 2022-01-17 07:45:00 0.2010 20.33 -999.00 0.7830 1.7750 -0.7 -999.0000 -999 0.0 16.3460 -999.0000 1.189 12.7210 12.8080 12.9 12.8 12.6400 0.0000 6.0000 6.0000
2022-01-17 16:00:00 2022-01-17 08:00:00 0.1964 20.33 -999.00 0.7270 1.7670 -0.7 -999.0000 -999 0.0 16.3400 -999.0000 1.187 12.7210 12.8060 12.9 12.9 12.6200 0.0000 8.0000 5.0000
2022-01-17 16:15:00 2022-01-17 08:15:00 0.2010 20.33 -999.00 0.6900 1.7600 -0.7 -999.0000 -999 0.0 16.3390 -999.0000 1.188 12.7210 12.8080 12.9 12.9 12.6600 0.0000 5.0000 2.0000
2022-01-17 16:30:00 2022-01-17 08:30:00 0.1964 20.33 -999.00 0.6770 1.7550 -0.7 -999.0000 -999 0.0 16.3350 -999.0000 1.187 12.7190 12.8040 12.9 12.9 12.6400 0.0700 7.0000 3.0000
2022-01-17 16:45:00 2022-01-17 08:45:00 0.1964 20.33 -999.00 0.7350 1.7510 -0.7 -999.0000 -999 0.0 16.3290 -999.0000 1.189 12.7190 12.8040 12.9 13.0 12.6400 3.2100 2.0000 5.0000
2022-01-17 17:00:00 2022-01-17 09:00:00 0.2010 20.34 -999.00 0.7850 1.7540 -0.8 -999.0000 -999 0.0 16.3360 -999.0000 1.187 12.7210 12.8080 13.0 13.0 12.6400 3.1400 8.0000 11.0000
2022-01-17 17:15:00 2022-01-17 09:15:00 0.2010 20.34 -999.00 0.9140 1.7620 -0.5 -999.0000 -999 0.0 16.3340 -999.0000 1.187 12.7220 12.8090 13.0 13.0 12.6400 6.3700 7.0000 12.0000
2022-01-17 17:30:00 2022-01-17 09:30:00 0.1964 20.34 -999.00 1.1380 1.8010 -0.5 -999.0000 -999 0.0 16.3570 -999.0000 1.198 12.7240 12.8090 13.0 13.1 12.6400 8.0200 8.0000 12.0000
2022-01-17 17:45:00 2022-01-17 09:45:00 -999.0000 20.35 -999.00 1.6170 -999.0000 -0.5 -999.0000 -999 0.0 -999.0000 -999.0000 1.198 12.7280 -999.0000 13.1 13.1 12.6400 11.4000 8.0000 13.0000
2022-01-17 18:00:00 2022-01-17 10:00:00 0.1872 20.36 -999.00 1.9510 1.8940 -0.1 -999.0000 -999 0.0 16.4040 -999.0000 1.192 12.7320 12.8130 13.1 13.2 12.6400 9.4900 7.0000 7.0000
2022-01-17 18:15:00 2022-01-17 10:15:00 0.1918 20.36 -999.00 2.0000 1.9110 0.2 -999.0000 -999 0.0 16.4170 -999.0000 1.195 12.7350 12.8180 13.1 13.1 12.6400 10.6600 1.0000 1.0000
2022-01-17 18:30:00 2022-01-17 10:30:00 0.1872 20.37 -999.00 2.0970 1.9140 0.4 -999.0000 -999 0.0 16.4220 -999.0000 1.191 12.7330 12.8140 13.1 13.1 12.6500 12.1400 6.0000 0.0000
2022-01-17 18:45:00 2022-01-17 10:45:00 0.1895 20.37 -999.00 2.1620 1.9340 0.4 -999.0000 -999 0.0 16.4300 -999.0000 1.202 12.7310 12.8130 13.1 13.2 12.6700 12.7000 7.0000 8.0000
2022-01-17 19:00:00 2022-01-17 11:00:00 0.1918 20.38 -999.00 2.2530 1.9360 0.6 -999.0000 -999 0.0 16.4480 -999.0000 1.199 12.7270 12.8100 13.1 13.2 12.6600 12.7000 6.0000 6.0000
2022-01-17 19:15:00 2022-01-17 11:15:00 0.1872 20.39 -999.00 2.2730 1.9200 0.7 -999.0000 -999 0.0 16.4600 -999.0000 1.191 12.7260 12.8070 13.1 13.2 12.6600 11.4900 2.0000 10.0000
2022-01-17 19:30:00 2022-01-17 11:30:00 0.1872 20.40 -999.00 2.5670 1.8950 0.9 -999.0000 -999 0.0 16.4460 -999.0000 1.207 12.7290 12.8100 13.2 13.2 12.6500 8.2800 7.0000 3.0000
2022-01-17 19:45:00 2022-01-17 11:45:00 0.1872 20.41 -999.00 2.7270 1.8700 1.2 -999.0000 -999 0.0 16.4250 -999.0000 1.217 12.7240 12.8050 13.3 13.3 12.6500 7.8500 6.0000 6.0000
2022-01-17 20:00:00 2022-01-17 12:00:00 0.1872 20.42 -999.00 2.6230 1.8700 1.8 -999.0000 -999 0.0 16.4300 -999.0000 1.217 12.7320 12.8130 13.3 13.4 12.6600 11.4700 7.0000 3.0000
2022-01-17 20:15:00 2022-01-17 12:15:00 0.1849 20.43 -999.00 2.6050 1.8930 1.9 -999.0000 -999 0.0 16.4380 -999.0000 1.219 12.7250 12.8050 13.3 13.4 12.6400 11.5100 7.0000 8.0000
2022-01-17 20:30:00 2022-01-17 12:30:00 0.1826 20.44 -999.00 2.4790 1.9220 1.9 -999.0000 -999 0.0 16.4500 -999.0000 1.195 12.7140 12.7930 13.3 13.3 12.6500 5.5600 7.0000 4.0000
2022-01-17 20:45:00 2022-01-17 12:45:00 0.1779 20.45 -999.00 2.2500 1.9470 1.9 -999.0000 -999 0.0 16.4470 -999.0000 1.197 12.7120 12.7890 13.3 13.3 12.6400 7.6900 7.0000 8.0000
2022-01-17 21:00:00 2022-01-17 13:00:00 0.1826 20.45 -999.00 2.0850 1.9670 1.6 -999.0000 -999 0.0 16.4520 -999.0000 1.207 12.7080 12.7870 13.3 13.3 12.6400 6.8700 7.0000 11.0000
2022-01-17 21:15:00 2022-01-17 13:15:00 0.1918 20.46 -999.00 2.0370 1.9780 1.6 -999.0000 -999 0.0 16.4600 -999.0000 1.197 12.7080 12.7910 13.3 13.3 12.6400 6.8700 7.0000 11.0000
2022-01-17 21:30:00 2022-01-17 13:30:00 0.1964 20.47 -999.00 2.1240 1.9900 1.6 -999.0000 -999 0.0 16.4880 -999.0000 1.200 12.7040 12.7890 13.3 13.4 12.6400 11.3900 1.0000 2.0000
2022-01-17 21:45:00 2022-01-17 13:45:00 0.1964 20.47 -999.00 2.1030 2.0060 1.4 -999.0000 -999 0.0 16.4990 -999.0000 1.197 12.7050 12.7900 13.3 13.3 12.6400 8.4100 1.0000 3.0000
2022-01-17 22:00:00 2022-01-17 14:00:00 0.1941 20.48 -999.00 2.1280 2.0320 1.4 -999.0000 -999 0.0 16.5190 -999.0000 1.206 12.7020 12.7860 13.3 13.3 12.6600 7.3200 1.0000 10.0000
2022-01-17 22:15:00 2022-01-17 14:15:00 0.1849 20.48 -999.00 1.9100 2.0520 1.4 -999.0000 -999 0.0 16.5290 -999.0000 1.212 12.7040 12.7840 13.3 13.3 12.6400 3.7300 7.0000 3.0000
2022-01-17 22:30:00 2022-01-17 14:30:00 0.1941 20.49 -999.00 1.8130 2.0550 1.1 -999.0000 -999 0.0 16.5480 -999.0000 1.207 12.7030 12.7870 13.3 13.3 12.6400 9.6600 2.0000 1.0000
2022-01-17 22:45:00 2022-01-17 14:45:00 0.2010 20.49 -999.00 1.6990 2.0560 1.1 -999.0000 -999 0.0 16.5620 -999.0000 1.202 12.7020 12.7890 13.3 13.3 12.6400 3.4000 7.0000 3.0000
2022-01-17 23:00:00 2022-01-17 15:00:00 0.2010 20.49 -999.00 1.4600 2.0480 0.9 -999.0000 -999 0.0 16.5490 -999.0000 1.210 12.7040 12.7910 13.2 13.3 12.6300 2.9400 2.0000 4.0000
2022-01-17 23:15:00 2022-01-17 15:15:00 0.2080 20.50 -999.00 1.4360 2.0350 0.9 -999.0000 -999 0.0 16.5400 -999.0000 1.218 12.7020 12.7920 13.2 13.3 12.6400 5.7800 7.0000 8.0000
2022-01-17 23:30:00 2022-01-17 15:30:00 0.2010 20.50 -999.00 1.3650 2.0240 0.7 -999.0000 -999 0.0 16.5280 -999.0000 1.213 12.7020 12.7890 13.1 13.2 12.6400 0.0000 3.0000 2.0000
2022-01-17 23:45:00 2022-01-17 15:45:00 0.2010 20.50 -999.00 1.1910 2.0030 0.6 -999.0000 -999 0.0 16.5140 -999.0000 1.211 12.6980 12.7850 13.2 13.2 12.6400 0.0000 7.0000 2.0000
2022-01-18 00:00:00 2022-01-17 16:00:00 0.2010 20.50 -999.00 0.9080 1.9690 0.4 -999.0000 -999 0.0 16.4970 -999.0000 1.209 12.6970 12.7840 13.2 13.2 12.6500 0.0000 5.0000 2.0000
2022-01-18 00:15:00 2022-01-17 16:15:00 0.2010 20.50 -999.00 0.7000 1.9280 0.2 -999.0000 -999 0.0 16.4720 -999.0000 1.213 12.6970 12.7840 13.1 13.1 12.6400 0.0000 0.0000 1.0000
2022-01-18 00:30:00 2022-01-17 16:30:00 0.2057 20.50 -999.00 0.4330 1.8830 0.0 -999.0000 -999 0.0 16.4620 -999.0000 1.206 12.6970 12.7860 13.1 13.1 12.6400 0.0000 3.0000 5.0000
2022-01-18 00:45:00 2022-01-17 16:45:00 0.2126 20.50 -999.00 0.1640 1.8370 -0.1 -999.0000 -999 0.0 16.4240 -999.0000 1.214 12.6980 12.7900 13.1 13.1 12.6400 0.0000 3.0000 12.0000
2022-01-18 01:00:00 2022-01-17 17:00:00 0.2172 20.50 -999.00 -0.0760 1.7910 -0.5 -999.0000 -999 0.0 16.4000 -999.0000 1.204 12.6960 12.7900 13.1 10.9 12.6400 0.0000 7.0000 8.0000
2022-01-18 01:15:00 2022-01-17 17:15:00 0.2126 20.50 -999.00 -0.2650 1.7480 -0.5 -999.0000 -999 0.0 16.3690 -999.0000 1.206 12.6960 12.7880 13.1 2.2 12.6400 0.0000 6.0000 1.0000
2022-01-18 01:30:00 2022-01-17 17:30:00 0.2149 20.50 -999.00 -0.3970 1.7090 -0.7 -999.0000 -999 0.0 16.3510 -999.0000 1.189 12.6930 12.7860 13.1 0.1 12.6400 0.0000 5.0000 9.0000
2022-01-18 01:45:00 2022-01-17 17:45:00 0.2172 20.50 -999.00 -0.5480 1.6730 -0.8 -999.0000 -999 0.0 16.3230 -999.0000 1.189 12.6910 12.7850 13.1 0.0 12.6400 0.0000 7.0000 10.0000
2022-01-18 02:00:00 2022-01-17 18:00:00 0.2172 20.50 -999.00 -0.6790 1.6400 -1.0 -999.0000 -999 0.0 16.3110 -999.0000 1.200 12.6900 12.7840 13.1 0.0 12.6400 0.0000 7.0000 6.0000
2022-01-18 02:15:00 2022-01-17 18:15:00 -999.0000 20.50 -999.00 -0.7900 -999.0000 -1.0 -999.0000 -999 0.0 -999.0000 -999.0000 1.180 12.6890 -999.0000 13.0 0.0 12.6600 0.0000 2.0000 8.0000
2022-01-18 02:30:00 2022-01-17 18:30:00 0.2172 20.50 -999.00 -0.7960 1.5890 -1.2 -999.0000 -999 0.0 16.2850 -999.0000 1.179 12.6910 12.7850 13.0 0.0 12.6400 0.0000 9.0000 13.0000
2022-01-18 02:45:00 2022-01-17 18:45:00 -999.0000 20.50 -999.00 -0.9480 -999.0000 -1.4 -999.0000 -999 0.0 -999.0000 -999.0000 1.187 12.6900 -999.0000 13.0 0.0 12.6400 0.0000 9.0000 5.0000
2022-01-18 03:00:00 2022-01-17 19:00:00 -999.0000 20.50 -999.00 -1.1090 -999.0000 -1.5 -999.0000 -999 0.0 -999.0000 -999.0000 1.180 12.6910 -999.0000 13.0 0.0 12.6300 0.0000 9.0000 8.0000
2022-01-18 03:15:00 2022-01-17 19:15:00 -999.0000 20.50 -999.00 -1.2750 -999.0000 -1.5 -999.0000 -999 0.0 -999.0000 -999.0000 1.179 12.6910 -999.0000 13.0 0.0 12.6400 0.0000 5.0000 13.0000
2022-01-18 03:30:00 2022-01-17 19:30:00 -999.0000 20.50 -999.00 -1.3870 -999.0000 -1.5 -999.0000 -999 0.0 -999.0000 -999.0000 1.184 12.6890 -999.0000 13.0 0.0 12.6400 0.0000 6.0000 4.0000
2022-01-18 03:45:00 2022-01-17 19:45:00 -999.0000 20.50 -999.00 -1.4290 -999.0000 -1.7 -999.0000 -999 0.0 -999.0000 -999.0000 1.176 12.6860 -999.0000 13.0 0.0 12.6400 0.0000 9.0000 7.0000
2022-01-18 04:00:00 2022-01-17 20:00:00 -999.0000 20.50 -999.00 -1.4910 -999.0000 -1.9 -999.0000 -999 0.0 -999.0000 -999.0000 1.185 12.6850 -999.0000 13.0 0.0 12.6300 0.0000 9.0000 12.0000
2022-01-18 04:15:00 2022-01-17 20:15:00 -999.0000 20.50 -999.00 -1.5050 -999.0000 -1.9 -999.0000 -999 0.0 -999.0000 -999.0000 1.175 12.6840 -999.0000 13.0 0.0 12.6300 0.0000 7.0000 7.0000
2022-01-18 04:30:00 2022-01-17 20:30:00 -999.0000 20.50 -999.00 -1.5160 -999.0000 -2.1 -999.0000 -999 0.0 -999.0000 -999.0000 1.165 12.6860 -999.0000 13.0 0.0 12.6400 0.0000 4.0000 12.0000
2022-01-18 04:45:00 2022-01-17 20:45:00 -999.0000 20.50 -999.00 -1.5590 -999.0000 -2.2 -999.0000 -999 0.0 -999.0000 -999.0000 1.167 12.6860 -999.0000 13.0 0.1 12.6300 0.0000 4.0000 6.0000
2022-01-18 05:00:00 2022-01-17 21:00:00 -999.0000 20.50 -999.00 -1.5940 -999.0000 -2.2 -999.0000 -999 0.0 -999.0000 -999.0000 1.163 12.6860 -999.0000 13.0 0.1 12.6400 0.0000 3.0000 3.0000
2022-01-18 05:15:00 2022-01-17 21:15:00 -999.0000 20.50 -999.00 -1.6130 -999.0000 -2.4 -999.0000 -999 0.0 -999.0000 -999.0000 1.177 12.6870 -999.0000 13.0 0.1 12.6400 0.0000 6.0000 7.0000
2022-01-18 05:30:00 2022-01-17 21:30:00 -999.0000 20.50 -999.00 -1.7030 -999.0000 -2.4 -999.0000 -999 0.0 -999.0000 -999.0000 1.179 12.6870 -999.0000 13.0 0.2 12.6300 0.0000 9.0000 5.0000
2022-01-18 05:45:00 2022-01-17 21:45:00 -999.0000 20.50 -999.00 -1.7630 -999.0000 -2.6 -999.0000 -999 0.0 -999.0000 -999.0000 1.173 12.6880 -999.0000 13.0 0.1 12.6400 0.0000 9.0000 11.0000
2022-01-18 06:00:00 2022-01-17 22:00:00 -999.0000 20.50 -999.00 -1.7750 -999.0000 -2.6 -999.0000 -999 0.0 -999.0000 -999.0000 1.175 12.6890 -999.0000 13.0 0.2 12.6400 0.0000 8.0000 5.0000
2022-01-18 06:15:00 2022-01-17 22:15:00 -999.0000 20.50 -999.00 -1.7730 -999.0000 -2.7 -999.0000 -999 0.0 -999.0000 -999.0000 1.182 12.6880 -999.0000 12.9 0.2 12.6400 0.0000 3.0000 8.0000
2022-01-18 06:30:00 2022-01-17 22:30:00 -999.0000 20.50 -999.00 -1.7420 -999.0000 -2.7 -999.0000 -999 0.0 -999.0000 -999.0000 1.167 12.6880 -999.0000 13.0 0.2 12.6400 0.0000 9.0000 9.0000
2022-01-18 06:45:00 2022-01-17 22:45:00 -999.0000 20.50 -999.00 -1.6870 -999.0000 -2.7 -999.0000 -999 0.0 -999.0000 -999.0000 1.177 12.6870 -999.0000 13.0 0.2 12.6400 0.0000 5.0000 13.0000
2022-01-18 07:00:00 2022-01-17 23:00:00 -999.0000 20.50 -999.00 -1.6420 -999.0000 -2.7 -999.0000 -999 0.0 -999.0000 -999.0000 1.176 12.6850 -999.0000 13.0 0.2 12.6400 0.0000 6.0000 5.0000
2022-01-18 07:15:00 2022-01-17 23:15:00 -999.0000 20.50 -999.00 -1.5960 -999.0000 -2.7 -999.0000 -999 0.0 -999.0000 -999.0000 1.188 12.6850 -999.0000 13.0 0.2 12.6400 0.0000 6.0000 8.0000
2022-01-18 07:30:00 2022-01-17 23:30:00 -999.0000 20.50 -999.00 -1.5410 -999.0000 -2.7 -999.0000 -999 0.0 -999.0000 -999.0000 1.179 12.6860 -999.0000 12.9 0.2 12.6400 0.0000 4.0000 12.0000
2022-01-18 07:45:00 2022-01-17 23:45:00 -999.0000 20.50 -999.00 -1.5150 -999.0000 -2.9 -999.0000 -999 0.0 -999.0000 -999.0000 1.177 12.6860 -999.0000 12.9 0.1 12.6300 0.0000 3.0000 10.0000
2022-01-18 08:00:00 2022-01-18 00:00:00 -999.0000 20.50 -999.00 -1.4360 -999.0000 -2.9 -999.0000 -999 0.0 -999.0000 -999.0000 1.167 12.6860 -999.0000 12.9 0.2 12.6400 0.0000 6.0000 6.0000
2022-01-18 08:15:00 2022-01-18 00:15:00 -999.0000 20.50 -999.00 -1.4220 -999.0000 -2.7 -999.0000 -999 0.0 -999.0000 -999.0000 1.182 12.6880 -999.0000 12.9 0.1 12.6400 0.0000 7.0000 8.0000
2022-01-18 08:30:00 2022-01-18 00:30:00 -999.0000 20.50 -999.00 -1.3480 -999.0000 -2.7 -999.0000 -999 0.0 -999.0000 -999.0000 1.180 12.6900 -999.0000 12.9 0.1 12.6500 0.0000 7.0000 3.0000
2022-01-18 08:45:00 2022-01-18 00:45:00 -999.0000 20.50 -999.00 -1.2450 -999.0000 -2.6 -999.0000 -999 0.0 -999.0000 -999.0000 1.180 12.6890 -999.0000 12.9 0.1 12.6400 0.0000 4.0000 11.0000
2022-01-18 09:00:00 2022-01-18 01:00:00 -999.0000 20.50 -999.00 -1.0700 -999.0000 -2.7 -999.0000 -999 0.0 -999.0000 -999.0000 1.179 12.6890 -999.0000 12.9 0.1 12.6400 0.0000 6.0000 11.0000
2022-01-18 09:15:00 2022-01-18 01:15:00 -999.0000 20.50 -999.00 -0.9440 -999.0000 -2.4 -999.0000 -999 0.0 -999.0000 -999.0000 1.181 12.6910 -999.0000 12.9 0.1 12.6400 0.0000 6.0000 6.0000
2022-01-18 09:30:00 2022-01-18 01:30:00 -999.0000 20.50 -999.00 -0.8300 -999.0000 -2.4 -999.0000 -999 0.0 -999.0000 -999.0000 1.180 12.6930 -999.0000 12.9 0.1 12.6400 0.0000 6.0000 10.0000
2022-01-18 09:45:00 2022-01-18 01:45:00 -999.0000 20.50 -999.00 -0.6930 -999.0000 -2.4 -999.0000 -999 0.0 -999.0000 -999.0000 1.181 12.6950 -999.0000 12.9 0.1 12.6400 0.0000 6.0000 7.0000
2022-01-18 10:00:00 2022-01-18 02:00:00 -999.0000 20.50 -999.00 -0.6020 -999.0000 -2.4 -999.0000 -999 0.0 -999.0000 -999.0000 1.181 12.6960 -999.0000 12.9 0.1 12.6400 0.0000 6.0000 9.0000
2022-01-18 10:15:00 2022-01-18 02:15:00 -999.0000 20.50 -999.00 -0.5070 -999.0000 -2.1 -999.0000 -999 0.0 -999.0000 -999.0000 1.173 12.7010 -999.0000 12.9 0.0 12.6600 0.0000 4.0000 10.0000
2022-01-18 10:30:00 2022-01-18 02:30:00 -999.0000 20.50 -999.00 -0.4090 -999.0000 -2.1 -999.0000 -999 0.0 -999.0000 -999.0000 1.172 12.7000 -999.0000 12.9 0.1 12.6400 0.0000 5.0000 7.0000
2022-01-18 10:45:00 2022-01-18 02:45:00 -999.0000 20.50 -999.00 -0.3020 -999.0000 -2.1 -999.0000 -999 0.0 -999.0000 -999.0000 1.169 12.7010 -999.0000 12.9 0.1 12.6400 0.0000 4.0000 10.0000
2022-01-18 11:00:00 2022-01-18 03:00:00 -999.0000 20.50 -999.00 -0.2390 -999.0000 -2.1 -999.0000 -999 0.0 -999.0000 -999.0000 1.167 12.6990 -999.0000 12.9 0.1 12.6600 0.0000 4.0000 5.0000
2022-01-18 11:15:00 2022-01-18 03:15:00 -999.0000 20.50 -999.00 -0.2320 -999.0000 -1.9 -999.0000 -999 0.0 -999.0000 -999.0000 1.170 12.6990 -999.0000 12.9 0.1 12.6400 0.0000 3.0000 9.0000
2022-01-18 11:30:00 2022-01-18 03:30:00 -999.0000 20.50 -999.00 -0.2170 -999.0000 -1.7 -999.0000 -999 0.0 -999.0000 -999.0000 1.169 12.6990 -999.0000 12.9 0.1 12.6300 0.0000 4.0000 7.0000
2022-01-18 11:45:00 2022-01-18 03:45:00 -999.0000 20.50 -999.00 -0.1910 -999.0000 -1.7 -999.0000 -999 0.0 -999.0000 -999.0000 1.183 12.6950 -999.0000 12.9 0.1 12.6400 0.0000 5.0000 9.0000
2022-01-18 12:00:00 2022-01-18 04:00:00 -999.0000 20.50 -999.00 -0.1300 -999.0000 -1.7 -999.0000 -999 0.0 -999.0000 -999.0000 1.185 12.6930 -999.0000 12.9 0.0 12.6400 0.0000 5.0000 9.0000
2022-01-18 12:15:00 2022-01-18 04:15:00 -999.0000 20.50 -999.00 -0.1010 -999.0000 -1.5 -999.0000 -999 0.0 -999.0000 -999.0000 1.179 12.6980 -999.0000 12.9 0.1 12.6300 0.0000 4.0000 1.0000
2022-01-18 12:30:00 2022-01-18 04:30:00 -999.0000 20.50 -999.00 -0.0690 -999.0000 -1.5 -999.0000 -999 0.0 -999.0000 -999.0000 1.133 12.6980 -999.0000 12.9 0.0 12.6400 0.0000 1.0000 6.0000
2022-01-18 12:45:00 2022-01-18 04:45:00 -999.0000 20.50 -999.00 -0.0500 -999.0000 -1.5 -999.0000 -999 0.0 -999.0000 -999.0000 1.143 12.6980 -999.0000 12.9 0.0 12.6400 0.0000 4.0000 5.0000
2022-01-18 13:00:00 2022-01-18 05:00:00 -999.0000 20.50 -999.00 -0.0090 -999.0000 -1.4 -999.0000 -999 0.0 -999.0000 -999.0000 1.149 12.7000 -999.0000 12.9 0.0 12.6400 0.0000 4.0000 10.0000
2022-01-18 13:15:00 2022-01-18 05:15:00 -999.0000 20.50 -999.00 0.0050 -999.0000 -1.4 -999.0000 -999 0.0 -999.0000 -999.0000 1.151 12.7030 -999.0000 12.9 0.0 12.6400 0.0000 4.0000 6.0000
2022-01-18 13:30:00 2022-01-18 05:30:00 -999.0000 20.50 -999.00 0.0350 -999.0000 -1.2 -999.0000 -999 0.0 -999.0000 -999.0000 1.152 12.7040 -999.0000 12.9 0.0 12.6500 0.0000 3.0000 8.0000
2022-01-18 13:45:00 2022-01-18 05:45:00 -999.0000 20.50 -999.00 0.0490 -999.0000 -1.2 -999.0000 -999 0.0 -999.0000 -999.0000 1.148 12.7060 -999.0000 12.9 0.0 12.6400 0.0000 3.0000 8.0000
2022-01-18 14:00:00 2022-01-18 06:00:00 -999.0000 20.50 -999.00 0.0520 -999.0000 -1.2 -999.0000 -999 0.0 -999.0000 -999.0000 1.148 12.7060 -999.0000 12.9 0.0 12.6400 0.0000 4.0000 7.0000
2022-01-18 14:15:00 2022-01-18 06:15:00 -999.0000 20.50 -999.00 0.0460 -999.0000 -1.2 -999.0000 -999 0.0 -999.0000 -999.0000 1.150 12.7060 -999.0000 12.9 0.0 12.6400 0.0000 4.0000 5.0000
2022-01-18 14:30:00 2022-01-18 06:30:00 -999.0000 20.50 -999.00 0.0560 -999.0000 -1.2 -999.0000 -999 0.0 -999.0000 -999.0000 1.143 12.7050 -999.0000 12.9 0.0 12.6400 0.0000 4.0000 3.0000
2022-01-18 14:45:00 2022-01-18 06:45:00 -999.0000 20.50 -999.00 0.0570 -999.0000 -1.2 -999.0000 -999 0.0 -999.0000 -999.0000 1.106 12.7070 -999.0000 12.9 0.0 12.6300 0.0000 5.0000 5.0000
2022-01-18 15:00:00 2022-01-18 07:00:00 -999.0000 20.50 -999.00 0.0430 -999.0000 -1.4 -999.0000 -999 0.0 -999.0000 -999.0000 1.091 12.7080 -999.0000 12.9 0.0 12.6400 0.0000 4.0000 4.0000
2022-01-18 15:15:00 2022-01-18 07:15:00 -999.0000 20.50 -999.00 0.0320 -999.0000 -1.0 -999.0000 -999 0.0 -999.0000 -999.0000 1.082 12.7090 -999.0000 12.9 0.2 12.6400 0.0000 4.0000 8.0000
2022-01-18 15:30:00 2022-01-18 07:30:00 -999.0000 20.50 -999.00 0.0550 -999.0000 -1.0 -999.0000 -999 0.0 -999.0000 -999.0000 1.081 12.7110 -999.0000 12.9 2.7 12.6400 0.0000 3.0000 7.0000
2022-01-18 15:45:00 2022-01-18 07:45:00 -999.0000 20.50 -999.00 0.0750 -999.0000 -1.2 -999.0000 -999 0.0 -999.0000 -999.0000 3.417 12.7130 -999.0000 12.9 7.3 12.6400 0.0000 4.0000 5.0000
2022-01-18 16:00:00 2022-01-18 08:00:00 -999.0000 20.50 -999.00 0.0820 -999.0000 -1.2 -999.0000 -999 0.0 -999.0000 -999.0000 1.117 12.7130 -999.0000 12.9 10.7 12.6400 0.0000 3.0000 5.0000
2022-01-18 16:15:00 2022-01-18 08:15:00 -999.0000 20.50 -999.00 0.0950 -999.0000 -1.2 -999.0000 -999 0.0 -999.0000 -999.0000 1.098 12.7160 -999.0000 12.9 11.7 12.6300 0.0000 4.0000 6.0000
2022-01-18 16:30:00 2022-01-18 08:30:00 -999.0000 20.50 -999.00 0.1260 -999.0000 -1.0 -999.0000 -999 0.0 -999.0000 -999.0000 1.149 12.7150 -999.0000 12.9 12.8 12.6400 0.0000 5.0000 7.0000
2022-01-18 16:45:00 2022-01-18 08:45:00 -999.0000 20.50 -999.00 0.1460 -999.0000 -1.0 -999.0000 -999 0.0 -999.0000 -999.0000 1.056 12.7190 -999.0000 12.9 12.8 12.6400 0.0000 3.0000 4.0000
2022-01-18 17:00:00 2022-01-18 09:00:00 -999.0000 20.50 -999.00 0.2600 -999.0000 -1.0 -999.0000 -999 0.0 -999.0000 -999.0000 1.066 12.7210 -999.0000 12.9 12.9 12.6500 3.5000 3.0000 6.0000
2022-01-18 17:15:00 2022-01-18 09:15:00 -999.0000 20.50 -999.00 0.4550 -999.0000 -0.8 -999.0000 -999 0.0 -999.0000 -999.0000 1.082 12.7240 -999.0000 12.9 12.9 12.6400 3.9000 3.0000 5.0000
2022-01-18 17:30:00 2022-01-18 09:30:00 -999.0000 20.50 -999.00 0.5410 -999.0000 -0.7 -999.0000 -999 0.0 -999.0000 -999.0000 1.095 12.7270 -999.0000 12.9 12.9 12.6400 4.2300 2.0000 4.0000
2022-01-18 17:45:00 2022-01-18 09:45:00 -999.0000 20.50 -999.00 0.5770 -999.0000 -0.7 -999.0000 -999 0.0 -999.0000 -999.0000 1.116 12.7290 -999.0000 12.9 12.9 12.6300 3.7300 3.0000 6.0000
2022-01-18 18:00:00 2022-01-18 10:00:00 -999.0000 20.50 -999.00 0.6320 -999.0000 -0.5 -999.0000 -999 0.0 -999.0000 -999.0000 1.088 12.7310 -999.0000 12.9 12.9 12.6400 5.9600 3.0000 3.0000
2022-01-18 18:15:00 2022-01-18 10:15:00 -999.0000 20.50 -999.00 0.6560 -999.0000 -0.3 -999.0000 -999 0.0 -999.0000 -999.0000 1.131 12.7330 -999.0000 12.9 12.9 12.6400 9.1300 1.0000 3.0000
2022-01-18 18:30:00 2022-01-18 10:30:00 -999.0000 20.50 -999.00 0.8480 -999.0000 -0.1 -999.0000 -999 0.0 -999.0000 -999.0000 1.081 12.7340 -999.0000 12.9 12.9 12.6400 9.1300 1.0000 3.0000
2022-01-18 18:45:00 2022-01-18 10:45:00 -999.0000 20.50 -999.00 1.0480 -999.0000 -0.1 -999.0000 -999 0.0 -999.0000 -999.0000 1.125 12.7360 -999.0000 12.9 12.9 12.6400 9.4100 1.0000 3.0000
2022-01-18 19:00:00 2022-01-18 11:00:00 -999.0000 20.50 -999.00 1.0730 -999.0000 0.2 -999.0000 -999 0.0 -999.0000 -999.0000 1.089 12.7380 -999.0000 12.9 12.9 12.6300 6.7000 1.0000 3.0000
2022-01-18 19:15:00 2022-01-18 11:15:00 -999.0000 20.51 -999.00 0.9540 -999.0000 0.2 -999.0000 -999 0.0 -999.0000 -999.0000 1.147 12.7390 -999.0000 12.9 12.9 -999.0000 -999.0000 0.0000 -999.0000
2022-01-18 19:30:00 2022-01-18 11:30:00 -999.0000 20.51 -999.00 0.8020 -999.0000 0.4 -999.0000 -999 0.0 -999.0000 -999.0000 1.143 12.7390 -999.0000 12.9 12.9 -999.0000 -999.0000 0.0000 -999.0000
2022-01-18 19:45:00 2022-01-18 11:45:00 -999.0000 20.53 -999.00 0.7970 -999.0000 0.2 -999.0000 -999 0.0 -999.0000 -999.0000 1.163 12.7380 -999.0000 12.9 12.9 12.6400 8.7200 1.0000 1.0000
2022-01-18 20:00:00 2022-01-18 12:00:00 -999.0000 20.55 -999.00 0.8100 -999.0000 0.2 -999.0000 -999 0.0 -999.0000 -999.0000 1.171 12.7390 -999.0000 12.9 12.9 -999.0000 -999.0000 2.0000 -999.0000
2022-01-18 20:15:00 2022-01-18 12:15:00 -999.0000 20.55 -999.00 0.8250 -999.0000 0.4 -999.0000 -999 0.0 -999.0000 -999.0000 1.151 12.7400 -999.0000 12.9 12.9 12.6400 6.0000 2.0000 4.0000
2022-01-18 20:30:00 2022-01-18 12:30:00 -999.0000 20.56 -999.00 0.8180 -999.0000 0.4 -999.0000 -999 0.0 -999.0000 -999.0000 1.154 12.7400 -999.0000 12.9 12.9 12.6400 9.2200 2.0000 4.0000
2022-01-18 20:45:00 2022-01-18 12:45:00 -999.0000 20.56 -999.00 0.8980 -999.0000 0.4 -999.0000 -999 0.0 -999.0000 -999.0000 1.176 12.7400 -999.0000 12.9 12.9 12.6400 7.3200 2.0000 4.0000
2022-01-18 21:00:00 2022-01-18 13:00:00 -999.0000 20.57 -999.00 0.8480 -999.0000 0.4 -999.0000 -999 0.0 -999.0000 -999.0000 1.155 12.7410 -999.0000 12.9 12.9 12.6400 6.3900 0.0000 4.0000
2022-01-18 21:15:00 2022-01-18 13:15:00 -999.0000 20.57 -999.00 0.8180 -999.0000 0.4 -999.0000 -999 0.0 -999.0000 -999.0000 0.834 12.7410 -999.0000 12.9 12.9 12.6400 0.2800 3.0000 3.0000
2022-01-18 21:30:00 2022-01-18 13:30:00 -999.0000 20.57 -999.00 0.6800 -999.0000 0.6 -999.0000 -999 0.0 -999.0000 -999.0000 1.150 12.7400 -999.0000 12.9 12.9 12.6400 3.2600 3.0000 5.0000
2022-01-18 21:45:00 2022-01-18 13:45:00 -999.0000 20.58 -999.00 0.7450 -999.0000 0.4 -999.0000 -999 0.0 -999.0000 -999.0000 1.150 12.7410 -999.0000 12.9 12.9 12.6400 9.5700 0.0000 5.0000
2022-01-18 22:00:00 2022-01-18 14:00:00 -999.0000 20.58 -999.00 0.7870 -999.0000 0.4 -999.0000 -999 0.0 -999.0000 -999.0000 1.152 12.7430 -999.0000 12.9 12.9 12.6400 9.4900 2.0000 3.0000
2022-01-18 22:15:00 2022-01-18 14:15:00 -999.0000 20.59 -999.00 0.9840 -999.0000 0.6 -999.0000 -999 0.0 -999.0000 -999.0000 1.162 12.7460 -999.0000 12.9 12.9 12.6400 6.6700 3.0000 3.0000
2022-01-18 22:30:00 2022-01-18 14:30:00 -999.0000 20.59 -999.00 1.0960 -999.0000 0.7 -999.0000 -999 0.0 -999.0000 -999.0000 1.158 12.7450 -999.0000 12.9 12.9 12.6400 0.3900 5.0000 1.0000
2022-01-18 22:45:00 2022-01-18 14:45:00 -999.0000 20.59 -999.00 0.8690 -999.0000 0.7 -999.0000 -999 0.0 -999.0000 -999.0000 1.153 12.7470 -999.0000 12.9 12.9 12.6400 3.5300 4.0000 3.0000
2022-01-18 23:00:00 2022-01-18 15:00:00 -999.0000 20.60 -999.00 0.7240 -999.0000 0.6 -999.0000 -999 0.0 -999.0000 -999.0000 1.153 12.7490 -999.0000 12.9 12.9 12.6400 0.1500 4.0000 3.0000
2022-01-18 23:15:00 2022-01-18 15:15:00 -999.0000 20.60 -999.00 0.6060 -999.0000 0.6 -999.0000 -999 0.0 -999.0000 -999.0000 1.153 12.7510 -999.0000 12.9 12.9 12.6400 0.0000 2.0000 7.0000
2022-01-18 23:30:00 2022-01-18 15:30:00 -999.0000 20.60 -999.00 0.4630 -999.0000 0.4 -999.0000 -999 0.0 -999.0000 -999.0000 1.152 12.7540 -999.0000 12.9 12.9 12.6400 0.0200 2.0000 4.0000
2022-01-18 23:45:00 2022-01-18 15:45:00 -999.0000 20.60 -999.00 0.3800 -999.0000 0.2 -999.0000 -999 0.0 -999.0000 -999.0000 1.154 12.7550 -999.0000 12.9 12.9 12.6400 0.4300 3.0000 6.0000
2022-01-19 00:00:00 2022-01-18 16:00:00 -999.0000 20.60 -999.00 0.3770 -999.0000 0.2 -999.0000 -999 0.0 -999.0000 -999.0000 1.152 12.7550 -999.0000 12.9 12.9 12.6400 0.0000 5.0000 2.0000
2022-01-19 00:15:00 2022-01-18 16:15:00 -999.0000 20.60 -999.00 0.3230 -999.0000 0.0 -999.0000 -999 0.0 -999.0000 -999.0000 1.153 12.7560 -999.0000 12.9 12.8 12.6400 0.0000 5.0000 1.0000
2022-01-19 00:30:00 2022-01-18 16:30:00 -999.0000 20.60 -999.00 0.2930 -999.0000 0.0 -999.0000 -999 0.0 -999.0000 -999.0000 1.153 12.7570 -999.0000 12.9 12.8 12.6400 0.0000 4.0000 3.0000
2022-01-19 00:45:00 2022-01-18 16:45:00 -999.0000 20.60 -999.00 0.2520 -999.0000 -0.1 -999.0000 -999 0.0 -999.0000 -999.0000 1.153 12.7600 -999.0000 12.9 12.8 12.6400 0.0000 4.0000 5.0000
2022-01-19 01:00:00 2022-01-18 17:00:00 -999.0000 20.60 -999.00 0.1930 -999.0000 -0.3 -999.0000 -999 0.0 -999.0000 -999.0000 1.153 12.7610 -999.0000 12.9 8.2 12.6400 0.0000 1.0000 4.0000
2022-01-19 01:15:00 2022-01-18 17:15:00 -999.0000 20.60 -999.00 0.1850 -999.0000 -0.5 -999.0000 -999 0.0 -999.0000 -999.0000 1.153 12.7610 -999.0000 12.8 1.1 12.6400 0.0000 1.0000 5.0000
2022-01-19 01:30:00 2022-01-18 17:30:00 -999.0000 20.60 -999.00 0.1880 -999.0000 -0.5 -999.0000 -999 0.0 -999.0000 -999.0000 1.152 12.7620 -999.0000 12.9 0.1 12.6400 0.0000 4.0000 2.0000
2022-01-19 01:45:00 2022-01-18 17:45:00 -999.0000 20.60 -999.00 0.1730 -999.0000 -0.7 -999.0000 -999 0.0 -999.0000 -999.0000 1.154 12.7640 -999.0000 12.9 0.0 12.6400 0.0000 4.0000 1.0000
2022-01-19 02:00:00 2022-01-18 18:00:00 -999.0000 20.60 -999.00 0.1610 -999.0000 -0.7 -999.0000 -999 0.0 -999.0000 -999.0000 1.153 12.7670 -999.0000 12.9 0.0 12.6400 0.0000 3.0000 3.0000
2022-01-19 02:15:00 2022-01-18 18:15:00 -999.0000 20.60 -999.00 0.1290 -999.0000 -0.7 -999.0000 -999 0.0 -999.0000 -999.0000 1.153 12.7680 -999.0000 12.8 0.0 12.6400 0.0000 3.0000 8.0000
2022-01-19 02:30:00 2022-01-18 18:30:00 -999.0000 20.60 -999.00 0.0740 -999.0000 -0.7 -999.0000 -999 0.0 -999.0000 -999.0000 1.152 12.7670 -999.0000 12.9 0.0 12.6400 0.0000 4.0000 7.0000
2022-01-19 02:45:00 2022-01-18 18:45:00 -999.0000 20.60 -999.00 0.0160 -999.0000 -0.8 -999.0000 -999 0.0 -999.0000 -999.0000 1.154 12.7660 -999.0000 12.9 0.0 12.6400 0.0000 4.0000 3.0000
2022-01-19 03:00:00 2022-01-18 19:00:00 -999.0000 20.60 -999.00 -0.0460 -999.0000 -0.8 -999.0000 -999 0.0 -999.0000 -999.0000 1.154 12.7640 -999.0000 12.9 0.0 12.6400 0.0000 4.0000 8.0000
2022-01-19 03:15:00 2022-01-18 19:15:00 -999.0000 20.60 -999.00 -0.2290 -999.0000 -0.8 -999.0000 -999 0.0 -999.0000 -999.0000 1.153 12.7680 -999.0000 12.8 0.0 12.6400 0.0000 5.0000 5.0000
2022-01-19 03:30:00 2022-01-18 19:30:00 -999.0000 20.60 -999.00 -0.3150 -999.0000 -0.8 -999.0000 -999 0.0 -999.0000 -999.0000 1.153 12.7710 -999.0000 12.8 0.0 12.6300 0.0000 5.0000 8.0000
2022-01-19 03:45:00 2022-01-18 19:45:00 -999.0000 20.60 -999.00 -0.4080 -999.0000 -1.0 -999.0000 -999 0.0 -999.0000 -999.0000 1.152 12.7710 -999.0000 12.8 0.0 12.6400 0.0000 3.0000 1.0000
2022-01-19 04:00:00 2022-01-18 20:00:00 -999.0000 20.60 -999.00 -0.5000 -999.0000 -1.0 -999.0000 -999 0.0 -999.0000 -999.0000 1.152 12.7730 -999.0000 12.9 0.0 12.6400 0.0000 3.0000 10.0000
2022-01-19 04:15:00 2022-01-18 20:15:00 -999.0000 20.60 -999.00 -0.5570 -999.0000 -1.0 -999.0000 -999 0.0 -999.0000 -999.0000 1.151 12.7730 -999.0000 12.8 0.1 12.6400 0.0000 3.0000 9.0000
2022-01-19 04:30:00 2022-01-18 20:30:00 -999.0000 20.60 -999.00 -0.7010 -999.0000 -1.2 -999.0000 -999 0.0 -999.0000 -999.0000 1.153 12.7740 -999.0000 12.8 0.0 12.6400 0.0000 6.0000 5.0000
2022-01-19 04:45:00 2022-01-18 20:45:00 -999.0000 20.60 -999.00 -0.8030 -999.0000 -1.2 -999.0000 -999 0.0 -999.0000 -999.0000 1.152 12.7750 -999.0000 12.8 0.1 12.6400 0.0000 6.0000 7.0000
2022-01-19 05:00:00 2022-01-18 21:00:00 -999.0000 20.60 -999.00 -0.9720 -999.0000 -1.4 -999.0000 -999 0.0 -999.0000 -999.0000 1.154 12.7760 -999.0000 12.8 0.0 12.6400 0.0000 6.0000 7.0000
2022-01-19 05:15:00 2022-01-18 21:15:00 -999.0000 20.60 -999.00 -1.1850 -999.0000 -1.4 -999.0000 -999 0.0 -999.0000 -999.0000 1.151 12.7770 -999.0000 12.8 0.0 12.6400 0.0000 5.0000 7.0000
2022-01-19 05:30:00 2022-01-18 21:30:00 -999.0000 20.60 -999.00 -1.4000 -999.0000 -1.4 -999.0000 -999 0.0 -999.0000 -999.0000 1.153 12.7770 -999.0000 12.8 0.1 12.6300 0.0000 6.0000 7.0000
2022-01-19 05:45:00 2022-01-18 21:45:00 -999.0000 20.60 -999.00 -1.5230 -999.0000 -1.7 -999.0000 -999 0.0 -999.0000 -999.0000 1.151 12.7750 -999.0000 12.8 0.1 12.6400 0.0000 6.0000 7.0000
2022-01-19 06:00:00 2022-01-18 22:00:00 -999.0000 20.60 -999.00 -1.5970 -999.0000 -1.7 -999.0000 -999 0.0 -999.0000 -999.0000 1.153 12.7770 -999.0000 12.8 0.1 12.6400 0.0000 5.0000 5.0000
2022-01-19 06:15:00 2022-01-18 22:15:00 -999.0000 20.60 -999.00 -1.6000 -999.0000 -1.7 -999.0000 -999 0.0 -999.0000 -999.0000 1.153 12.7780 -999.0000 12.8 0.1 12.6400 0.0000 1.0000 6.0000
2022-01-19 06:30:00 2022-01-18 22:30:00 -999.0000 20.60 -999.00 -1.6290 -999.0000 -1.9 -999.0000 -999 0.0 -999.0000 -999.0000 1.153 12.7790 -999.0000 12.8 0.1 12.6400 0.0000 6.0000 6.0000
2022-01-19 06:45:00 2022-01-18 22:45:00 -999.0000 20.60 -999.00 -1.6680 -999.0000 -2.2 -999.0000 -999 0.0 -999.0000 -999.0000 1.151 12.7800 -999.0000 12.8 0.1 12.6400 0.0000 5.0000 8.0000
2022-01-19 07:00:00 2022-01-18 23:00:00 -999.0000 20.60 -999.00 -1.8140 -999.0000 -2.2 -999.0000 -999 0.0 -999.0000 -999.0000 1.151 12.7800 -999.0000 12.8 0.1 12.6400 0.0000 5.0000 7.0000
2022-01-19 07:15:00 2022-01-18 23:15:00 -999.0000 20.60 -999.00 -1.9330 -999.0000 -2.2 -999.0000 -999 0.0 -999.0000 -999.0000 1.151 12.7810 -999.0000 12.8 0.1 12.6400 0.0000 6.0000 6.0000
2022-01-19 07:30:00 2022-01-18 23:30:00 -999.0000 20.60 -999.00 -2.0210 -999.0000 -2.4 -999.0000 -999 0.0 -999.0000 -999.0000 1.151 12.7810 -999.0000 12.8 0.2 12.6400 0.0000 6.0000 9.0000
2022-01-19 07:45:00 2022-01-18 23:45:00 -999.0000 20.60 -999.00 -2.1320 -999.0000 -2.4 -999.0000 -999 0.0 -999.0000 -999.0000 1.153 12.7770 -999.0000 12.9 0.1 12.6400 0.0000 5.0000 9.0000
2022-01-19 08:00:00 2022-01-19 00:00:00 -999.0000 20.60 -999.00 -2.2020 -999.0000 -2.7 -999.0000 -999 0.0 -999.0000 -999.0000 1.151 12.7760 -999.0000 12.8 0.2 12.6500 0.0000 5.0000 10.0000
2022-01-19 08:15:00 2022-01-19 00:15:00 -999.0000 20.60 -999.00 -2.2800 -999.0000 -2.9 -999.0000 -999 0.0 -999.0000 -999.0000 1.152 12.7770 -999.0000 12.8 0.2 12.6400 0.0000 6.0000 8.0000
2022-01-19 08:30:00 2022-01-19 00:30:00 -999.0000 20.60 -999.00 -2.4270 -999.0000 -2.9 -999.0000 -999 0.0 -999.0000 -999.0000 1.150 12.7810 -999.0000 12.8 0.2 12.6400 0.0000 5.0000 6.0000
2022-01-19 08:45:00 2022-01-19 00:45:00 -999.0000 20.60 -999.00 -2.5330 -999.0000 -3.1 -999.0000 -999 0.0 -999.0000 -999.0000 1.152 12.7810 -999.0000 12.8 0.2 12.6400 0.0000 6.0000 5.0000
2022-01-19 09:00:00 2022-01-19 01:00:00 -999.0000 20.60 -999.00 -2.6420 -999.0000 -3.3 -999.0000 -999 0.0 -999.0000 -999.0000 1.152 12.7810 -999.0000 12.8 0.2 12.6400 0.0000 6.0000 9.0000
2022-01-19 09:15:00 2022-01-19 01:15:00 -999.0000 20.60 -999.00 -2.8830 -999.0000 -3.4 -999.0000 -999 0.0 -999.0000 -999.0000 1.151 12.7830 -999.0000 12.8 0.2 12.6300 0.0000 8.0000 8.0000
2022-01-19 09:30:00 2022-01-19 01:30:00 -999.0000 20.60 -999.00 -3.0000 -999.0000 -3.6 -999.0000 -999 0.0 -999.0000 -999.0000 1.151 12.7800 -999.0000 12.8 0.1 12.6400 0.0000 8.0000 12.0000
2022-01-19 09:45:00 2022-01-19 01:45:00 -999.0000 20.60 -999.00 -3.0820 -999.0000 -3.6 -999.0000 -999 0.0 -999.0000 -999.0000 1.150 12.7810 -999.0000 12.8 0.1 12.6400 0.0000 7.0000 10.0000
2022-01-19 10:00:00 2022-01-19 02:00:00 -999.0000 20.60 -999.00 -3.1940 -999.0000 -4.0 -999.0000 -999 0.0 -999.0000 -999.0000 1.150 12.7820 -999.0000 12.8 0.1 12.6400 0.0000 7.0000 11.0000
2022-01-19 10:15:00 2022-01-19 02:15:00 -999.0000 20.60 -999.00 -3.2530 -999.0000 -4.0 -999.0000 -999 0.0 -999.0000 -999.0000 1.154 12.7820 -999.0000 12.8 0.2 12.6400 0.0000 7.0000 11.0000
2022-01-19 10:30:00 2022-01-19 02:30:00 -999.0000 20.60 -999.00 -3.3100 -999.0000 -4.1 -999.0000 -999 0.0 -999.0000 -999.0000 1.153 12.7840 -999.0000 12.8 0.1 12.6300 0.0000 4.0000 6.0000
2022-01-19 10:45:00 2022-01-19 02:45:00 -999.0000 20.60 -999.00 -3.5040 -999.0000 -4.3 -999.0000 -999 0.0 -999.0000 -999.0000 1.151 12.7840 -999.0000 12.8 0.1 12.6300 0.0000 10.0000 6.0000
2022-01-19 11:00:00 2022-01-19 03:00:00 -999.0000 20.60 -999.00 -3.5630 -999.0000 -4.5 -999.0000 -999 0.0 -999.0000 -999.0000 1.152 12.7890 -999.0000 12.8 0.1 12.6300 0.0000 10.0000 9.0000
2022-01-19 11:15:00 2022-01-19 03:15:00 -999.0000 20.60 -999.00 -3.5470 -999.0000 -4.5 -999.0000 -999 0.0 -999.0000 -999.0000 1.152 12.7920 -999.0000 12.8 0.1 12.6400 0.0000 6.0000 11.0000
2022-01-19 11:30:00 2022-01-19 03:30:00 -999.0000 20.60 -999.00 -3.4800 -999.0000 -4.7 -999.0000 -999 0.0 -999.0000 -999.0000 1.151 12.7930 -999.0000 12.8 0.1 12.6400 0.0000 6.0000 13.0000
2022-01-19 11:45:00 2022-01-19 03:45:00 -999.0000 20.60 -999.00 -3.3660 -999.0000 -4.7 -999.0000 -999 0.0 -999.0000 -999.0000 1.152 12.7920 -999.0000 12.8 0.1 12.6400 0.0000 7.0000 10.0000
2022-01-19 12:00:00 2022-01-19 04:00:00 -999.0000 20.60 -999.00 -3.2010 -999.0000 -4.7 -999.0000 -999 0.0 -999.0000 -999.0000 1.151 12.7940 -999.0000 12.8 0.1 12.6400 0.0000 8.0000 8.0000
2022-01-19 12:15:00 2022-01-19 04:15:00 -999.0000 20.60 -999.00 -3.0830 -999.0000 -4.7 -999.0000 -999 0.0 -999.0000 -999.0000 1.151 12.7930 -999.0000 12.8 0.1 12.6500 0.0000 8.0000 8.0000
2022-01-19 12:30:00 2022-01-19 04:30:00 -999.0000 20.60 -999.00 -3.0080 -999.0000 -4.5 -999.0000 -999 0.0 -999.0000 -999.0000 1.151 12.7930 -999.0000 12.8 0.1 12.6300 0.0000 9.0000 7.0000
2022-01-19 12:45:00 2022-01-19 04:45:00 -999.0000 20.60 -999.00 -2.9650 -999.0000 -4.7 -999.0000 -999 0.0 -999.0000 -999.0000 1.151 12.7910 -999.0000 12.8 0.1 12.6400 0.0000 9.0000 10.0000
2022-01-19 13:00:00 2022-01-19 05:00:00 -999.0000 20.60 -999.00 -2.8860 -999.0000 -4.5 -999.0000 -999 0.0 -999.0000 -999.0000 1.149 12.7930 -999.0000 12.8 0.1 12.6400 0.0000 8.0000 7.0000
2022-01-19 13:15:00 2022-01-19 05:15:00 -999.0000 20.60 -999.00 -2.7960 -999.0000 -4.5 -999.0000 -999 0.0 -999.0000 -999.0000 1.150 12.7940 -999.0000 12.8 0.1 12.6400 0.0000 8.0000 12.0000
2022-01-19 13:30:00 2022-01-19 05:30:00 -999.0000 20.60 -999.00 -2.7010 -999.0000 -4.5 -999.0000 -999 0.0 -999.0000 -999.0000 1.151 12.7950 -999.0000 12.8 0.1 12.6400 0.0000 5.0000 11.0000
2022-01-19 13:45:00 2022-01-19 05:45:00 -999.0000 20.60 -999.00 -2.6200 -999.0000 -4.3 -999.0000 -999 0.0 -999.0000 -999.0000 1.147 12.7960 -999.0000 12.8 0.0 12.6400 0.0000 7.0000 10.0000
2022-01-19 14:00:00 2022-01-19 06:00:00 -999.0000 20.60 -999.00 -2.5610 -999.0000 -4.3 -999.0000 -999 0.0 -999.0000 -999.0000 1.147 12.8000 -999.0000 12.8 0.0 12.6400 0.0000 7.0000 7.0000
2022-01-19 14:15:00 2022-01-19 06:15:00 -999.0000 20.60 -999.00 -2.5040 -999.0000 -4.1 -999.0000 -999 0.0 -999.0000 -999.0000 1.146 12.8020 -999.0000 12.8 0.0 12.6400 0.0000 9.0000 9.0000
2022-01-19 14:30:00 2022-01-19 06:30:00 -999.0000 20.60 -999.00 -2.4160 -999.0000 -4.1 -999.0000 -999 0.0 -999.0000 -999.0000 1.147 12.8020 -999.0000 12.8 0.0 12.6400 0.0000 4.0000 8.0000
2022-01-19 14:45:00 2022-01-19 06:45:00 -999.0000 20.60 -999.00 -2.3340 -999.0000 -4.1 -999.0000 -999 0.0 -999.0000 -999.0000 1.147 12.8040 -999.0000 12.8 0.0 12.6300 0.0000 4.0000 6.0000
2022-01-19 15:00:00 2022-01-19 07:00:00 -999.0000 20.60 -999.00 -2.2270 -999.0000 -4.0 -999.0000 -999 0.0 -999.0000 -999.0000 1.144 12.8030 -999.0000 12.8 0.1 12.6400 0.0000 6.0000 2.0000
2022-01-19 15:15:00 2022-01-19 07:15:00 -999.0000 20.60 -999.00 -2.1370 -999.0000 -3.8 -999.0000 -999 0.0 -999.0000 -999.0000 1.142 12.8070 -999.0000 12.8 0.9 12.6400 0.0000 9.0000 6.0000
2022-01-19 15:30:00 2022-01-19 07:30:00 0.2126 20.60 -999.00 -2.0760 1.3930 -3.8 -999.0000 -999 0.0 16.3790 -999.0000 1.141 12.8090 12.9010 12.8 8.2 12.6400 0.0000 4.0000 8.0000
2022-01-19 15:45:00 2022-01-19 07:45:00 0.2103 20.60 -999.00 -2.0130 1.4070 -3.8 -999.0000 -999 0.0 16.4010 -999.0000 1.140 12.8090 12.9000 12.8 12.7 12.6300 0.0000 5.0000 8.0000
2022-01-19 16:00:00 2022-01-19 08:00:00 -999.0000 20.60 -999.00 -1.8930 -999.0000 -3.8 -999.0000 -999 0.0 -999.0000 -999.0000 1.141 12.8110 -999.0000 12.8 12.8 12.6400 0.0000 5.0000 8.0000
2022-01-19 16:15:00 2022-01-19 08:15:00 -999.0000 20.60 -999.00 -1.8170 -999.0000 -3.6 -999.0000 -999 0.0 -999.0000 -999.0000 1.140 12.8120 -999.0000 12.8 12.8 12.6300 0.0000 5.0000 6.0000
2022-01-19 16:30:00 2022-01-19 08:30:00 -999.0000 20.60 -999.00 -1.7080 -999.0000 -3.4 -999.0000 -999 0.0 -999.0000 -999.0000 1.139 12.8160 -999.0000 12.8 12.8 12.6300 0.1300 5.0000 5.0000
2022-01-19 16:45:00 2022-01-19 08:45:00 -999.0000 20.60 -999.00 -1.5570 -999.0000 -3.3 -999.0000 -999 0.0 -999.0000 -999.0000 1.139 12.8160 -999.0000 12.8 12.8 12.6400 3.4500 5.0000 8.0000
2022-01-19 17:00:00 2022-01-19 09:00:00 -999.0000 20.60 -999.00 -1.3480 -999.0000 -3.1 -999.0000 -999 0.0 -999.0000 -999.0000 1.139 12.8170 -999.0000 12.8 12.8 12.6400 3.0800 7.0000 8.0000
2022-01-19 17:15:00 2022-01-19 09:15:00 -999.0000 20.60 -999.00 -1.1180 -999.0000 -2.9 -999.0000 -999 0.0 -999.0000 -999.0000 1.138 12.8200 -999.0000 12.8 12.8 12.6400 6.1200 6.0000 5.0000
2022-01-19 17:30:00 2022-01-19 09:30:00 -999.0000 20.60 -999.00 -0.8480 -999.0000 -2.6 -999.0000 -999 0.0 -999.0000 -999.0000 1.134 12.8230 -999.0000 12.8 12.9 12.6400 9.9400 5.0000 7.0000
2022-01-19 17:45:00 2022-01-19 09:45:00 -999.0000 20.60 -999.00 -0.5120 -999.0000 -2.4 -999.0000 -999 0.0 -999.0000 -999.0000 1.136 12.8250 -999.0000 12.9 12.9 12.6400 10.4800 6.0000 6.0000
2022-01-19 18:00:00 2022-01-19 10:00:00 -999.0000 20.60 -999.00 -0.2020 -999.0000 -1.9 -999.0000 -999 0.0 -999.0000 -999.0000 1.138 12.8270 -999.0000 12.9 12.9 12.6400 11.4600 5.0000 5.0000
2022-01-19 18:15:00 2022-01-19 10:15:00 -999.0000 20.60 -999.00 0.1620 -999.0000 -1.4 -999.0000 -999 0.0 -999.0000 -999.0000 1.136 12.8300 -999.0000 12.9 12.9 12.6400 11.4200 6.0000 6.0000
2022-01-19 18:30:00 2022-01-19 10:30:00 -999.0000 20.60 -999.00 0.4350 -999.0000 -1.0 -999.0000 -999 0.0 -999.0000 -999.0000 1.134 12.8310 -999.0000 12.9 13.0 12.6400 11.8700 1.0000 4.0000
2022-01-19 18:45:00 2022-01-19 10:45:00 -999.0000 20.61 -999.00 0.7080 -999.0000 -0.7 -999.0000 -999 0.0 -999.0000 -999.0000 1.136 12.8310 -999.0000 12.9 13.0 12.6400 11.7400 2.0000 4.0000
2022-01-19 19:00:00 2022-01-19 11:00:00 -999.0000 20.61 -999.00 0.9520 -999.0000 -0.3 -999.0000 -999 0.0 -999.0000 -999.0000 1.133 12.8310 -999.0000 13.0 13.0 12.6400 11.6100 3.0000 4.0000
2022-01-19 19:15:00 2022-01-19 11:15:00 -999.0000 20.61 -999.00 1.3180 -999.0000 0.4 -999.0000 -999 0.0 -999.0000 -999.0000 1.132 12.8330 -999.0000 13.0 13.0 12.6400 11.6100 3.0000 4.0000
2022-01-19 19:30:00 2022-01-19 11:30:00 -999.0000 20.63 -999.00 1.3270 -999.0000 0.7 -999.0000 -999 0.0 -999.0000 -999.0000 1.138 12.8330 -999.0000 13.0 13.0 12.6400 11.4600 1.0000 3.0000
2022-01-19 19:45:00 2022-01-19 11:45:00 -999.0000 20.63 -999.00 1.3370 -999.0000 1.1 -999.0000 -999 0.0 -999.0000 -999.0000 1.147 12.8320 -999.0000 13.0 13.1 12.6400 11.5300 1.0000 0.0000
2022-01-19 20:00:00 2022-01-19 12:00:00 -999.0000 20.64 -999.00 1.3220 -999.0000 1.2 -999.0000 -999 0.0 -999.0000 -999.0000 1.210 12.8310 -999.0000 13.1 13.1 12.6400 11.5300 1.0000 0.0000
2022-01-19 20:15:00 2022-01-19 12:15:00 -999.0000 20.65 -999.00 1.2710 -999.0000 1.2 -999.0000 -999 0.0 -999.0000 -999.0000 1.215 12.8310 -999.0000 13.1 13.1 -999.0000 -999.0000 2.0000 -999.0000
2022-01-19 20:30:00 2022-01-19 12:30:00 -999.0000 20.66 -999.00 1.3960 -999.0000 1.4 -999.0000 -999 0.0 -999.0000 -999.0000 1.216 12.8310 -999.0000 13.3 13.4 -999.0000 -999.0000 2.0000 -999.0000
2022-01-19 20:45:00 2022-01-19 12:45:00 -999.0000 20.67 -999.00 1.5980 -999.0000 1.6 -999.0000 -999 0.0 -999.0000 -999.0000 1.215 12.8310 -999.0000 13.4 13.5 -999.0000 -999.0000 1.0000 -999.0000
2022-01-19 21:00:00 2022-01-19 13:00:00 -999.0000 20.68 -999.00 1.8090 -999.0000 1.8 -999.0000 -999 0.0 -999.0000 -999.0000 1.207 12.8300 -999.0000 13.4 13.5 -999.0000 -999.0000 1.0000 -999.0000
2022-01-19 21:15:00 2022-01-19 13:15:00 -999.0000 20.69 -999.00 1.8690 -999.0000 2.1 -999.0000 -999 0.0 -999.0000 -999.0000 1.212 12.8290 -999.0000 13.4 13.4 -999.0000 -999.0000 1.0000 -999.0000
2022-01-19 21:30:00 2022-01-19 13:30:00 -999.0000 20.70 -999.00 1.8500 -999.0000 2.3 -999.0000 -999 0.0 -999.0000 -999.0000 1.206 12.8270 -999.0000 13.4 13.5 -999.0000 -999.0000 1.0000 -999.0000
2022-01-19 21:45:00 2022-01-19 13:45:00 -999.0000 20.71 -999.00 1.9280 -999.0000 2.3 -999.0000 -999 0.0 -999.0000 -999.0000 1.178 12.8250 -999.0000 13.4 13.5 -999.0000 -999.0000 1.0000 -999.0000
2022-01-19 22:00:00 2022-01-19 14:00:00 -999.0000 20.72 -999.00 1.9710 -999.0000 2.3 -999.0000 -999 0.0 -999.0000 -999.0000 1.153 12.8250 -999.0000 13.4 13.5 -999.0000 -999.0000 1.0000 -999.0000
2022-01-19 22:15:00 2022-01-19 14:15:00 -999.0000 20.73 -999.00 1.8960 -999.0000 2.3 -999.0000 -999 0.0 -999.0000 -999.0000 1.148 12.8270 -999.0000 13.3 13.3 -999.0000 -999.0000 0.0000 -999.0000
2022-01-19 22:30:00 2022-01-19 14:30:00 -999.0000 20.73 -999.00 1.6740 -999.0000 2.3 -999.0000 -999 0.0 -999.0000 -999.0000 1.149 12.8280 -999.0000 13.3 13.4 12.6400 11.3400 2.0000 7.0000
2022-01-19 22:45:00 2022-01-19 14:45:00 -999.0000 20.74 -999.00 1.7870 -999.0000 2.1 -999.0000 -999 0.0 -999.0000 -999.0000 1.153 12.8290 -999.0000 13.4 13.5 12.6300 11.5200 3.0000 6.0000
2022-01-19 23:00:00 2022-01-19 15:00:00 -999.0000 20.75 -999.00 1.9260 -999.0000 2.1 -999.0000 -999 0.0 -999.0000 -999.0000 1.146 12.8300 -999.0000 13.4 13.5 12.6300 11.5200 3.0000 6.0000
2022-01-19 23:15:00 2022-01-19 15:15:00 0.1987 20.75 -999.00 1.9150 2.3860 2.1 -999.0000 -999 0.0 17.0730 -999.0000 1.178 12.8320 12.9180 13.4 13.4 12.6400 9.8300 6.0000 5.0000
2022-01-19 23:30:00 2022-01-19 15:30:00 0.1941 20.76 -999.00 1.7780 2.3800 2.1 -999.0000 -999 0.0 17.0730 -999.0000 1.164 12.8330 12.9170 13.3 13.4 12.6400 9.8300 5.0000 5.0000
2022-01-19 23:45:00 2022-01-19 15:45:00 0.1964 20.76 -999.00 1.6530 2.3600 1.9 -999.0000 -999 0.0 17.0590 -999.0000 1.144 12.8310 12.9160 13.3 13.4 12.6400 7.0100 5.0000 9.0000
2022-01-20 00:00:00 2022-01-19 16:00:00 0.1918 20.77 -999.00 1.5370 2.3320 1.6 -999.0000 -999 0.0 17.0430 -999.0000 1.143 12.8300 12.9130 13.3 13.3 12.6400 7.0100 5.0000 9.0000
2022-01-20 00:15:00 2022-01-19 16:15:00 0.1964 20.77 -999.00 1.2940 2.2830 1.4 -999.0000 -999 0.0 17.0070 -999.0000 1.141 12.8300 12.9150 13.2 13.2 12.6300 0.0000 4.0000 7.0000
2022-01-20 00:30:00 2022-01-19 16:30:00 0.2034 20.77 -999.00 1.1080 2.2190 1.1 -999.0000 -999 0.0 16.9410 -999.0000 1.140 12.8330 12.9210 13.2 13.2 12.6300 0.0000 4.0000 7.0000
2022-01-20 00:45:00 2022-01-19 16:45:00 0.2034 20.77 -999.00 0.9160 2.1560 0.9 -999.0000 -999 0.0 16.8990 -999.0000 1.141 12.8310 12.9190 13.2 13.1 12.6400 0.0000 5.0000 8.0000
2022-01-20 01:00:00 2022-01-19 17:00:00 0.1987 20.77 -999.00 0.6880 2.0880 0.4 -999.0000 -999 0.0 16.8400 -999.0000 1.142 12.8270 12.9130 13.1 10.7 12.6300 0.0000 4.0000 9.0000
2022-01-20 01:15:00 2022-01-19 17:15:00 0.2034 20.77 -999.00 0.4330 2.0160 0.2 -999.0000 -999 0.0 16.7780 -999.0000 1.143 12.8250 12.9130 13.1 2.2 12.6400 0.0000 6.0000 6.0000
2022-01-20 01:30:00 2022-01-19 17:30:00 0.1987 20.77 -999.00 0.1880 1.9440 0.0 -999.0000 -999 0.0 16.7370 -999.0000 1.142 12.8290 12.9150 13.1 0.2 12.6300 0.0000 4.0000 8.0000
2022-01-20 01:45:00 2022-01-19 17:45:00 0.1987 20.77 -999.00 0.0910 1.8830 -0.3 -999.0000 -999 0.0 16.6880 -999.0000 1.145 12.8290 12.9150 13.1 0.0 12.6300 0.0000 6.0000 9.0000
2022-01-20 02:00:00 2022-01-19 18:00:00 0.1987 20.77 -999.00 0.1340 1.8520 -0.5 -999.0000 -999 0.0 16.6570 -999.0000 1.144 12.8290 12.9150 13.1 0.0 12.6300 0.0000 4.0000 8.0000
2022-01-20 02:15:00 2022-01-19 18:15:00 0.2010 20.77 -999.00 0.2390 1.8380 -0.3 -999.0000 -999 0.0 16.6470 -999.0000 1.145 12.8300 12.9170 13.1 0.0 12.6400 0.0000 3.0000 3.0000
2022-01-20 02:30:00 2022-01-19 18:30:00 0.2010 20.77 -999.00 0.3240 1.8370 -0.5 -999.0000 -999 0.0 16.6490 -999.0000 1.145 12.8290 12.9160 13.1 0.0 12.6400 0.0000 4.0000 9.0000
2022-01-20 02:45:00 2022-01-19 18:45:00 0.2034 20.77 -999.00 0.2920 1.8320 -0.7 -999.0000 -999 0.0 16.6370 -999.0000 1.145 12.8260 12.9140 13.1 0.0 12.6300 0.0000 4.0000 8.0000
2022-01-20 03:00:00 2022-01-19 19:00:00 0.1987 20.77 -999.00 0.2750 1.8220 -0.7 -999.0000 -999 0.0 16.6290 -999.0000 1.145 12.8240 12.9100 13.1 0.1 12.6400 0.0000 4.0000 7.0000
2022-01-20 03:15:00 2022-01-19 19:15:00 0.2010 20.77 -999.00 0.3060 1.8190 -0.7 -999.0000 -999 0.0 16.6360 -999.0000 1.145 12.8230 12.9100 13.0 0.0 12.6400 0.0000 1.0000 3.0000
2022-01-20 03:30:00 2022-01-19 19:30:00 -999.0000 20.77 -999.00 0.3490 -999.0000 -0.7 -999.0000 -999 0.0 -999.0000 -999.0000 1.145 12.8230 -999.0000 13.0 0.0 12.6300 0.0000 4.0000 7.0000
2022-01-20 03:45:00 2022-01-19 19:45:00 -999.0000 20.77 -999.00 0.4130 -999.0000 -0.7 -999.0000 -999 0.0 -999.0000 -999.0000 1.147 12.8270 -999.0000 13.0 0.1 12.6300 0.0000 5.0000 -2.0000
2022-01-20 04:00:00 2022-01-19 20:00:00 -999.0000 20.77 -999.00 0.4770 -999.0000 -0.8 -999.0000 -999 0.0 -999.0000 -999.0000 1.145 12.8270 -999.0000 13.0 0.0 12.6300 0.0000 5.0000 2.0000
2022-01-20 04:15:00 2022-01-19 20:15:00 -999.0000 20.77 -999.00 0.4300 -999.0000 -0.7 -999.0000 -999 0.0 -999.0000 -999.0000 1.145 12.8260 -999.0000 13.0 0.0 12.6400 0.0000 5.0000 9.0000
2022-01-20 04:30:00 2022-01-19 20:30:00 -999.0000 20.77 -999.00 0.3610 -999.0000 -0.7 -999.0000 -999 0.0 -999.0000 -999.0000 1.146 12.8250 -999.0000 13.0 0.0 12.6400 0.0000 5.0000 9.0000
2022-01-20 04:45:00 2022-01-19 20:45:00 -999.0000 20.77 -999.00 0.3340 -999.0000 -0.8 -999.0000 -999 0.0 -999.0000 -999.0000 1.144 12.8230 -999.0000 13.0 0.0 12.6400 0.0000 3.0000 8.0000
2022-01-20 05:00:00 2022-01-19 21:00:00 -999.0000 20.77 -999.00 0.2880 -999.0000 -0.8 -999.0000 -999 0.0 -999.0000 -999.0000 1.145 12.8260 -999.0000 13.0 0.0 12.6300 0.0000 5.0000 8.0000
2022-01-20 05:15:00 2022-01-19 21:15:00 -999.0000 20.77 -999.00 0.1910 -999.0000 -0.8 -999.0000 -999 0.0 -999.0000 -999.0000 1.145 12.8270 -999.0000 13.0 0.0 12.6400 0.0000 4.0000 5.0000
2022-01-20 05:30:00 2022-01-19 21:30:00 -999.0000 20.77 -999.00 0.1070 -999.0000 -0.8 -999.0000 -999 0.0 -999.0000 -999.0000 1.145 12.8250 -999.0000 13.0 0.0 12.6300 0.0000 5.0000 8.0000
2022-01-20 05:45:00 2022-01-19 21:45:00 -999.0000 20.77 -999.00 0.0650 -999.0000 -0.8 -999.0000 -999 0.0 -999.0000 -999.0000 1.145 12.8260 -999.0000 13.0 0.0 12.6400 0.0000 4.0000 2.0000
2022-01-20 06:00:00 2022-01-19 22:00:00 -999.0000 20.77 -999.00 0.1040 -999.0000 -0.8 -999.0000 -999 0.0 -999.0000 -999.0000 1.146 12.8260 -999.0000 13.0 0.0 12.6400 0.0000 3.0000 8.0000
2022-01-20 06:15:00 2022-01-19 22:15:00 -999.0000 20.77 -999.00 0.1920 -999.0000 -0.8 -999.0000 -999 0.0 -999.0000 -999.0000 1.146 12.8240 -999.0000 12.9 0.1 12.6400 0.0000 4.0000 2.0000
2022-01-20 06:30:00 2022-01-19 22:30:00 -999.0000 20.77 -999.00 0.2900 -999.0000 -0.8 -999.0000 -999 0.0 -999.0000 -999.0000 1.147 12.8250 -999.0000 12.9 0.1 12.6400 0.0000 4.0000 9.0000
2022-01-20 06:45:00 2022-01-19 22:45:00 -999.0000 20.77 -999.00 0.4040 -999.0000 -0.8 -999.0000 -999 0.0 -999.0000 -999.0000 1.146 12.8250 -999.0000 13.0 0.1 12.6300 0.0000 3.0000 7.0000
2022-01-20 07:00:00 2022-01-19 23:00:00 -999.0000 20.77 -999.00 0.5160 -999.0000 -0.8 -999.0000 -999 0.0 -999.0000 -999.0000 1.148 12.8260 -999.0000 13.0 0.1 12.6400 0.0000 3.0000 7.0000
2022-01-20 07:15:00 2022-01-19 23:15:00 -999.0000 20.77 -999.00 0.6180 -999.0000 -0.8 -999.0000 -999 0.0 -999.0000 -999.0000 1.147 12.8260 -999.0000 12.9 0.1 12.6300 0.0000 4.0000 5.0000
2022-01-20 07:30:00 2022-01-19 23:30:00 -999.0000 20.77 -999.00 0.6610 -999.0000 -0.8 -999.0000 -999 0.0 -999.0000 -999.0000 1.144 12.8240 -999.0000 12.9 0.1 12.6400 0.0000 5.0000 0.0000
2022-01-20 07:45:00 2022-01-19 23:45:00 0.1918 20.77 -999.00 0.7050 1.8680 -0.7 -999.0000 -999 0.0 16.6770 -999.0000 1.146 12.8230 12.9060 12.9 0.0 12.6400 0.0000 3.0000 1.0000
2022-01-20 08:00:00 2022-01-20 00:00:00 0.1849 20.77 -999.00 0.7300 1.8870 -0.8 -999.0000 -999 0.0 16.6830 -999.0000 1.142 12.8210 12.9010 12.9 0.1 12.6300 0.0000 4.0000 8.0000
2022-01-20 08:15:00 2022-01-20 00:15:00 0.1895 20.77 -999.00 0.7760 1.9040 -0.7 -999.0000 -999 0.0 16.6960 -999.0000 1.144 12.8180 12.9000 12.9 0.0 12.6400 0.0000 4.0000 7.0000
2022-01-20 08:30:00 2022-01-20 00:30:00 0.1895 20.77 -999.00 0.8300 1.9210 -0.7 -999.0000 -999 0.0 16.7040 -999.0000 1.142 12.8190 12.9010 12.9 0.1 12.6400 0.0000 4.0000 7.0000
2022-01-20 08:45:00 2022-01-20 00:45:00 0.1895 20.77 -999.00 0.8780 1.9340 -0.7 -999.0000 -999 0.0 16.7080 -999.0000 1.144 12.8170 12.8990 12.9 0.1 12.6400 0.0000 3.0000 7.0000
2022-01-20 09:00:00 2022-01-20 01:00:00 0.1918 20.78 -999.00 0.8730 1.9470 -0.7 -999.0000 -999 0.0 16.7210 -999.0000 1.151 12.8160 12.8990 12.9 0.0 12.6200 0.0000 4.0000 6.0000
2022-01-20 09:15:00 2022-01-20 01:15:00 0.1802 20.78 -999.00 0.9330 1.9580 -0.5 -999.0000 -999 0.0 16.7260 -999.0000 1.147 12.8170 12.8950 12.9 0.0 12.6200 0.0000 4.0000 6.0000
2022-01-20 09:30:00 2022-01-20 01:30:00 -999.0000 20.78 -999.00 0.9210 -999.0000 -0.5 -999.0000 -999 0.0 -999.0000 -999.0000 1.193 12.8120 -999.0000 12.9 0.0 12.6300 0.0000 3.0000 4.0000
2022-01-20 09:45:00 2022-01-20 01:45:00 -999.0000 20.78 -999.00 0.9620 -999.0000 -0.5 -999.0000 -999 0.0 -999.0000 -999.0000 1.194 12.8120 -999.0000 12.9 0.1 12.6400 0.0000 5.0000 8.0000
2022-01-20 10:00:00 2022-01-20 02:00:00 -999.0000 20.78 -999.00 0.9990 -999.0000 -0.5 -999.0000 -999 0.0 -999.0000 -999.0000 1.188 12.8150 -999.0000 12.9 0.0 12.6400 0.0000 3.0000 1.0000
2022-01-20 10:15:00 2022-01-20 02:15:00 -999.0000 20.80 -999.00 1.1010 -999.0000 -0.5 -999.0000 -999 0.0 -999.0000 -999.0000 1.191 12.8130 -999.0000 12.9 0.0 12.6400 0.0000 5.0000 6.0000
2022-01-20 10:30:00 2022-01-20 02:30:00 -999.0000 20.81 -999.00 1.1350 -999.0000 -0.5 -999.0000 -999 0.0 -999.0000 -999.0000 1.139 12.8110 -999.0000 12.9 0.0 12.6400 0.0000 1.0000 6.0000
2022-01-20 10:45:00 2022-01-20 02:45:00 -999.0000 20.81 -999.00 1.0820 -999.0000 -0.5 -999.0000 -999 0.0 -999.0000 -999.0000 1.142 12.8110 -999.0000 12.9 0.1 -999.0000 -999.0000 1.0000 -999.0000
2022-01-20 11:00:00 2022-01-20 03:00:00 -999.0000 20.82 -999.00 1.0550 -999.0000 -0.5 -999.0000 -999 0.0 -999.0000 -999.0000 1.146 12.8110 -999.0000 12.9 0.0 -999.0000 -999.0000 1.0000 -999.0000
2022-01-20 11:15:00 2022-01-20 03:15:00 -999.0000 20.82 -999.00 1.0840 -999.0000 -0.3 -999.0000 -999 0.0 -999.0000 -999.0000 1.138 12.8090 -999.0000 12.9 0.1 -999.0000 -999.0000 2.0000 -999.0000
2022-01-20 11:30:00 2022-01-20 03:30:00 -999.0000 20.83 -999.00 1.1160 -999.0000 -0.3 -999.0000 -999 0.0 -999.0000 -999.0000 1.140 12.8110 -999.0000 12.9 0.1 -999.0000 -999.0000 2.0000 -999.0000
2022-01-20 11:45:00 2022-01-20 03:45:00 -999.0000 20.83 -999.00 1.1440 -999.0000 -0.3 -999.0000 -999 0.0 -999.0000 -999.0000 1.128 12.8100 -999.0000 12.9 0.0 -999.0000 -999.0000 2.0000 -999.0000
2022-01-20 12:00:00 2022-01-20 04:00:00 -999.0000 20.84 -999.00 1.1430 -999.0000 -0.5 -999.0000 -999 0.0 -999.0000 -999.0000 1.122 12.8060 -999.0000 12.9 0.0 -999.0000 -999.0000 2.0000 -999.0000
2022-01-20 12:15:00 2022-01-20 04:15:00 -999.0000 20.84 -999.00 1.0990 -999.0000 -0.3 -999.0000 -999 0.0 -999.0000 -999.0000 1.119 12.8050 -999.0000 12.9 0.0 -999.0000 -999.0000 2.0000 -999.0000
2022-01-20 12:30:00 2022-01-20 04:30:00 -999.0000 20.85 -999.00 1.1460 -999.0000 -0.3 -999.0000 -999 0.0 -999.0000 -999.0000 1.124 12.8040 -999.0000 12.9 0.0 -999.0000 -999.0000 2.0000 -999.0000
2022-01-20 12:45:00 2022-01-20 04:45:00 -999.0000 20.87 -999.00 1.1260 -999.0000 -0.3 -999.0000 -999 0.0 -999.0000 -999.0000 1.139 12.8010 -999.0000 12.9 0.0 -999.0000 -999.0000 2.0000 -999.0000
2022-01-20 13:00:00 2022-01-20 05:00:00 -999.0000 20.90 -999.00 1.1190 -999.0000 -0.5 -999.0000 -999 0.0 -999.0000 -999.0000 1.136 12.8020 -999.0000 12.9 0.0 -999.0000 -999.0000 2.0000 -999.0000
2022-01-20 13:15:00 2022-01-20 05:15:00 -999.0000 20.93 -999.00 1.1870 -999.0000 -0.3 -999.0000 -999 0.0 -999.0000 -999.0000 1.136 12.7990 -999.0000 12.8 0.0 -999.0000 -999.0000 2.0000 -999.0000
2022-01-20 13:30:00 2022-01-20 05:30:00 -999.0000 20.96 -999.00 1.2020 -999.0000 -0.3 -999.0000 -999 0.0 -999.0000 -999.0000 1.177 12.8000 -999.0000 12.9 0.0 -999.0000 -999.0000 -1.0000 -999.0000
2022-01-20 13:45:00 2022-01-20 05:45:00 -999.0000 20.99 -999.00 1.1770 -999.0000 -0.3 -999.0000 -999 0.0 -999.0000 -999.0000 1.134 12.7940 -999.0000 12.9 0.1 -999.0000 -999.0000 -1.0000 -999.0000
2022-01-20 14:00:00 2022-01-20 06:00:00 -999.0000 21.03 -999.00 1.1330 -999.0000 -0.3 -999.0000 -999 0.0 -999.0000 -999.0000 1.131 12.7930 -999.0000 12.9 0.1 -999.0000 -999.0000 1.0000 -999.0000
2022-01-20 14:15:00 2022-01-20 06:15:00 -999.0000 21.06 -999.00 1.2010 -999.0000 -0.3 -999.0000 -999 0.0 -999.0000 -999.0000 1.177 12.7890 -999.0000 12.8 0.0 -999.0000 -999.0000 0.0000 -999.0000
2022-01-20 14:30:00 2022-01-20 06:30:00 -999.0000 21.07 -999.00 1.2680 -999.0000 -0.3 -999.0000 -999 0.0 -999.0000 -999.0000 1.169 12.7870 -999.0000 12.9 0.0 -999.0000 -999.0000 0.0000 -999.0000
2022-01-20 14:45:00 2022-01-20 06:45:00 -999.0000 21.08 -999.00 1.2670 -999.0000 -0.5 -999.0000 -999 0.0 -999.0000 -999.0000 1.171 12.7870 -999.0000 12.9 0.0 -999.0000 -999.0000 0.0000 -999.0000
2022-01-20 15:00:00 2022-01-20 07:00:00 -999.0000 21.10 -999.00 1.2110 -999.0000 -0.3 -999.0000 -999 0.0 -999.0000 -999.0000 1.166 12.7920 -999.0000 12.9 0.1 -999.0000 -999.0000 0.0000 -999.0000
2022-01-20 15:15:00 2022-01-20 07:15:00 -999.0000 21.15 -999.00 1.2220 -999.0000 -0.3 -999.0000 -999 0.0 -999.0000 -999.0000 1.168 12.7920 -999.0000 12.8 0.3 -999.0000 -999.0000 0.0000 -999.0000
2022-01-20 15:30:00 2022-01-20 07:30:00 -999.0000 21.20 -999.00 1.3710 -999.0000 -0.1 -999.0000 -999 0.0 -999.0000 -999.0000 1.148 12.7950 -999.0000 12.8 2.4 -999.0000 -999.0000 0.0000 -999.0000
2022-01-20 15:45:00 2022-01-20 07:45:00 -999.0000 21.25 -999.00 1.5400 -999.0000 -0.3 -999.0000 -999 0.0 -999.0000 -999.0000 1.134 12.7960 -999.0000 12.8 6.7 -999.0000 -999.0000 1.0000 -999.0000
2022-01-20 16:00:00 2022-01-20 08:00:00 -999.0000 21.36 -999.00 1.6300 -999.0000 -0.1 -999.0000 -999 0.0 -999.0000 -999.0000 1.167 12.7970 -999.0000 12.8 11.0 -999.0000 -999.0000 1.0000 -999.0000
2022-01-20 16:15:00 2022-01-20 08:15:00 -999.0000 21.42 -999.00 1.6690 -999.0000 -0.1 -999.0000 -999 0.0 -999.0000 -999.0000 1.178 12.7960 -999.0000 12.8 12.8 -999.0000 -999.0000 0.0000 -999.0000
2022-01-20 16:30:00 2022-01-20 08:30:00 -999.0000 21.44 -999.00 1.4230 -999.0000 -0.1 -999.0000 -999 0.0 -999.0000 -999.0000 1.154 12.7920 -999.0000 12.9 12.9 -999.0000 -999.0000 -1.0000 -999.0000
2022-01-20 16:45:00 2022-01-20 08:45:00 -999.0000 21.44 -999.00 1.4680 -999.0000 -0.1 -999.0000 -999 0.0 -999.0000 -999.0000 1.122 12.7910 -999.0000 12.9 12.9 -999.0000 -999.0000 -1.0000 -999.0000
2022-01-20 17:00:00 2022-01-20 09:00:00 -999.0000 21.45 -999.00 1.4540 -999.0000 -0.1 -999.0000 -999 0.0 -999.0000 -999.0000 1.121 12.7920 -999.0000 12.9 12.9 -999.0000 -999.0000 -1.0000 -999.0000
2022-01-20 17:15:00 2022-01-20 09:15:00 -999.0000 21.45 -999.00 1.3970 -999.0000 -0.1 -999.0000 -999 0.0 -999.0000 -999.0000 1.117 12.7880 -999.0000 12.9 12.9 -999.0000 -999.0000 -3.0000 -999.0000
2022-01-20 17:30:00 2022-01-20 09:30:00 -999.0000 21.45 -999.00 1.5210 -999.0000 0.0 -999.0000 -999 0.0 -999.0000 -999.0000 1.118 12.7850 -999.0000 13.0 13.0 -999.0000 -999.0000 -3.0000 -999.0000
2022-01-20 17:45:00 2022-01-20 09:45:00 -999.0000 21.46 -999.00 1.6730 -999.0000 0.2 -999.0000 -999 0.0 -999.0000 -999.0000 1.121 12.7810 -999.0000 13.1 13.1 -999.0000 -999.0000 1.0000 -999.0000
2022-01-20 18:00:00 2022-01-20 10:00:00 -999.0000 21.47 -999.00 1.7830 -999.0000 0.4 -999.0000 -999 0.0 -999.0000 -999.0000 1.124 12.7860 -999.0000 13.1 13.2 -999.0000 -999.0000 1.0000 -999.0000
2022-01-20 18:15:00 2022-01-20 10:15:00 -999.0000 21.47 -999.00 1.7620 -999.0000 0.6 -999.0000 -999 0.0 -999.0000 -999.0000 1.122 12.7900 -999.0000 13.1 13.1 -999.0000 -999.0000 2.0000 -999.0000
2022-01-20 18:30:00 2022-01-20 10:30:00 -999.0000 21.48 -999.00 2.0020 -999.0000 0.6 -999.0000 -999 0.0 -999.0000 -999.0000 1.131 12.7930 -999.0000 13.2 13.2 -999.0000 -999.0000 1.0000 -999.0000
2022-01-20 18:45:00 2022-01-20 10:45:00 -999.0000 21.48 -999.00 2.1920 -999.0000 0.6 -999.0000 -999 0.0 -999.0000 -999.0000 1.137 12.7930 -999.0000 13.2 13.3 -999.0000 -999.0000 1.0000 -999.0000
2022-01-20 19:00:00 2022-01-20 11:00:00 -999.0000 21.49 -999.00 2.4230 -999.0000 0.7 -999.0000 -999 0.0 -999.0000 -999.0000 1.164 12.7910 -999.0000 13.3 13.3 -999.0000 -999.0000 1.0000 -999.0000
2022-01-20 19:15:00 2022-01-20 11:15:00 -999.0000 21.50 -999.00 2.6280 -999.0000 1.1 -999.0000 -999 0.0 -999.0000 -999.0000 1.155 12.7890 -999.0000 13.3 13.3 -999.0000 -999.0000 1.0000 -999.0000
2022-01-20 19:30:00 2022-01-20 11:30:00 -999.0000 21.51 -999.00 2.8060 -999.0000 1.2 -999.0000 -999 0.0 -999.0000 -999.0000 1.177 12.7880 -999.0000 13.3 13.4 12.6700 12.2200 -1.0000 4.0000
2022-01-20 19:45:00 2022-01-20 11:45:00 -999.0000 21.52 -999.00 2.8020 -999.0000 1.6 -999.0000 -999 0.0 -999.0000 -999.0000 1.173 12.7910 -999.0000 13.7 13.9 -999.0000 -999.0000 0.0000 -999.0000
2022-01-20 20:00:00 2022-01-20 12:00:00 -999.0000 21.53 -999.00 2.3150 -999.0000 2.1 -999.0000 -999 0.0 -999.0000 -999.0000 1.177 12.7900 -999.0000 13.3 13.3 -999.0000 -999.0000 1.0000 -999.0000
2022-01-20 20:15:00 2022-01-20 12:15:00 -999.0000 21.54 -999.00 1.7850 -999.0000 2.1 -999.0000 -999 0.0 -999.0000 -999.0000 1.176 12.7850 -999.0000 13.3 13.3 -999.0000 -999.0000 1.0000 -999.0000
2022-01-20 20:30:00 2022-01-20 12:30:00 -999.0000 21.54 -999.00 1.3980 -999.0000 1.9 -999.0000 -999 0.0 -999.0000 -999.0000 1.172 12.7830 -999.0000 13.2 13.2 -999.0000 -999.0000 0.0000 -999.0000
2022-01-20 20:45:00 2022-01-20 12:45:00 -999.0000 21.54 -999.00 1.2020 -999.0000 1.6 -999.0000 -999 0.0 -999.0000 -999.0000 1.173 12.7840 -999.0000 13.2 13.2 12.6300 4.4100 0.0000 6.0000
2022-01-20 21:00:00 2022-01-20 13:00:00 -999.0000 21.54 -999.00 1.0270 -999.0000 1.1 -999.0000 -999 0.0 -999.0000 -999.0000 1.174 12.7800 -999.0000 13.2 13.2 -999.0000 -999.0000 2.0000 -999.0000
2022-01-20 21:15:00 2022-01-20 13:15:00 -999.0000 21.54 -999.00 1.1940 -999.0000 0.7 -999.0000 -999 0.0 -999.0000 -999.0000 1.174 12.7870 -999.0000 13.2 13.2 -999.0000 -999.0000 3.0000 -999.0000
2022-01-20 21:30:00 2022-01-20 13:30:00 -999.0000 21.55 -999.00 1.5300 -999.0000 0.7 -999.0000 -999 0.0 -999.0000 -999.0000 1.171 12.7880 -999.0000 13.2 13.2 -999.0000 -999.0000 0.0000 -999.0000
2022-01-20 21:45:00 2022-01-20 13:45:00 -999.0000 21.55 -999.00 1.4860 -999.0000 0.4 -999.0000 -999 0.0 -999.0000 -999.0000 1.161 12.7900 -999.0000 13.2 13.2 12.6300 2.3900 0.0000 7.0000
2022-01-20 22:00:00 2022-01-20 14:00:00 -999.0000 21.55 -999.00 1.2120 -999.0000 0.4 -999.0000 -999 0.0 -999.0000 -999.0000 1.174 12.7890 -999.0000 13.1 13.2 12.6400 2.1500 5.0000 7.0000
2022-01-20 22:15:00 2022-01-20 14:15:00 -999.0000 21.55 -999.00 1.1360 -999.0000 0.2 -999.0000 -999 0.0 -999.0000 -999.0000 1.175 12.7900 -999.0000 13.1 13.1 12.6400 0.6100 5.0000 4.0000
2022-01-20 22:30:00 2022-01-20 14:30:00 -999.0000 21.55 -999.00 1.3140 -999.0000 0.2 -999.0000 -999 0.0 -999.0000 -999.0000 1.166 12.7910 -999.0000 13.1 13.1 12.6400 0.4100 5.0000 5.0000
2022-01-20 22:45:00 2022-01-20 14:45:00 -999.0000 21.55 -999.00 1.5580 -999.0000 -0.1 -999.0000 -999 0.0 -999.0000 -999.0000 1.169 12.7930 -999.0000 13.1 13.1 12.6300 0.2400 5.0000 7.0000
2022-01-20 23:00:00 2022-01-20 15:00:00 -999.0000 21.55 -999.00 1.1490 -999.0000 -0.3 -999.0000 -999 0.0 -999.0000 -999.0000 1.177 12.7860 -999.0000 13.1 13.1 12.6400 0.1100 5.0000 3.0000
2022-01-20 23:15:00 2022-01-20 15:15:00 -999.0000 21.55 -999.00 1.5090 -999.0000 -0.1 -999.0000 -999 0.0 -999.0000 -999.0000 1.177 12.7940 -999.0000 13.1 13.1 12.6400 0.4100 5.0000 6.0000
2022-01-20 23:30:00 2022-01-20 15:30:00 -999.0000 21.55 -999.00 1.7900 -999.0000 -0.1 -999.0000 -999 0.0 -999.0000 -999.0000 1.182 12.7930 -999.0000 13.1 13.1 12.6300 3.5200 5.0000 7.0000
2022-01-20 23:45:00 2022-01-20 15:45:00 -999.0000 21.55 -999.00 1.7290 -999.0000 -0.3 -999.0000 -999 0.0 -999.0000 -999.0000 1.181 12.8010 -999.0000 13.1 13.2 12.6300 5.2900 5.0000 1.0000
2022-01-21 00:00:00 2022-01-20 16:00:00 -999.0000 21.55 -999.00 1.9190 -999.0000 -0.3 -999.0000 -999 0.0 -999.0000 -999.0000 1.181 12.8040 -999.0000 13.1 13.1 12.6400 0.0000 7.0000 9.0000
2022-01-21 00:15:00 2022-01-20 16:15:00 -999.0000 21.55 -999.00 1.5820 -999.0000 -0.3 -999.0000 -999 0.0 -999.0000 -999.0000 1.179 12.8020 -999.0000 13.1 13.1 12.6400 0.0000 7.0000 3.0000
2022-01-21 00:30:00 2022-01-20 16:30:00 -999.0000 21.55 -999.00 1.4320 -999.0000 -0.3 -999.0000 -999 0.0 -999.0000 -999.0000 1.152 12.8000 -999.0000 13.1 13.1 12.6300 0.0000 5.0000 6.0000
2022-01-21 00:45:00 2022-01-20 16:45:00 -999.0000 21.55 -999.00 1.5680 -999.0000 -0.3 -999.0000 -999 0.0 -999.0000 -999.0000 1.170 12.8000 -999.0000 13.0 11.4 12.6300 0.0000 5.0000 7.0000
2022-01-21 01:00:00 2022-01-20 17:00:00 -999.0000 21.56 -999.00 1.2080 -999.0000 -0.5 -999.0000 -999 0.0 -999.0000 -999.0000 1.139 12.7930 -999.0000 13.0 10.2 12.6200 0.0000 6.0000 8.0000
2022-01-21 01:15:00 2022-01-20 17:15:00 -999.0000 21.56 -999.00 0.9780 -999.0000 -0.3 -999.0000 -999 0.0 -999.0000 -999.0000 1.091 12.7910 -999.0000 13.0 1.7 12.6300 0.0000 6.0000 3.0000
2022-01-21 01:30:00 2022-01-20 17:30:00 -999.0000 21.56 -999.00 0.9080 -999.0000 -0.5 -999.0000 -999 0.0 -999.0000 -999.0000 1.089 12.7960 -999.0000 13.0 0.2 12.6400 0.0000 4.0000 8.0000
2022-01-21 01:45:00 2022-01-20 17:45:00 -999.0000 21.56 -999.00 1.0310 -999.0000 -0.5 -999.0000 -999 0.0 -999.0000 -999.0000 1.147 12.8070 -999.0000 13.0 0.1 12.6400 0.0000 3.0000 4.0000
2022-01-21 02:00:00 2022-01-20 18:00:00 -999.0000 21.56 -999.00 0.8500 -999.0000 -0.5 -999.0000 -999 0.0 -999.0000 -999.0000 1.063 12.8130 -999.0000 13.0 0.1 12.6500 0.0000 3.0000 1.0000
2022-01-21 02:15:00 2022-01-20 18:15:00 -999.0000 21.56 -999.00 0.5780 -999.0000 -0.5 -999.0000 -999 0.0 -999.0000 -999.0000 1.056 12.8140 -999.0000 13.0 0.0 12.6400 0.0000 5.0000 5.0000
2022-01-21 02:30:00 2022-01-20 18:30:00 -999.0000 21.56 -999.00 0.4510 -999.0000 -0.5 -999.0000 -999 0.0 -999.0000 -999.0000 1.072 12.8180 -999.0000 13.0 0.0 12.6300 0.0000 4.0000 7.0000
2022-01-21 02:45:00 2022-01-20 18:45:00 -999.0000 21.56 -999.00 0.3480 -999.0000 -0.7 -999.0000 -999 0.0 -999.0000 -999.0000 1.067 12.8200 -999.0000 13.0 0.0 12.6300 0.0000 5.0000 8.0000
2022-01-21 03:00:00 2022-01-20 19:00:00 -999.0000 21.56 -999.00 0.2370 -999.0000 -0.7 -999.0000 -999 0.0 -999.0000 -999.0000 1.068 12.8170 -999.0000 13.0 0.0 12.6400 0.0000 6.0000 7.0000
2022-01-21 03:15:00 2022-01-20 19:15:00 -999.0000 21.56 -999.00 0.1750 -999.0000 -0.8 -999.0000 -999 0.0 -999.0000 -999.0000 1.067 12.8160 -999.0000 12.9 0.0 12.6400 0.0000 7.0000 4.0000
2022-01-21 03:30:00 2022-01-20 19:30:00 -999.0000 21.56 -999.00 0.2530 -999.0000 -0.7 -999.0000 -999 0.0 -999.0000 -999.0000 1.065 12.8150 -999.0000 12.9 0.0 12.6300 0.0000 1.0000 5.0000
2022-01-21 03:45:00 2022-01-20 19:45:00 -999.0000 21.56 -999.00 0.2340 -999.0000 -0.7 -999.0000 -999 0.0 -999.0000 -999.0000 1.063 12.8180 -999.0000 12.9 0.0 12.6400 0.0000 1.0000 5.0000
2022-01-21 04:00:00 2022-01-20 20:00:00 -999.0000 21.56 -999.00 0.3160 -999.0000 -0.8 -999.0000 -999 0.0 -999.0000 -999.0000 1.067 12.8230 -999.0000 12.9 0.0 12.6300 0.0000 5.0000 12.0000
2022-01-21 04:15:00 2022-01-20 20:15:00 -999.0000 21.56 -999.00 0.8330 -999.0000 -0.8 -999.0000 -999 0.0 -999.0000 -999.0000 1.072 12.8280 -999.0000 12.9 0.0 12.6400 0.0000 4.0000 10.0000
2022-01-21 04:30:00 2022-01-20 20:30:00 -999.0000 21.56 -999.00 0.7730 -999.0000 -0.8 -999.0000 -999 0.0 -999.0000 -999.0000 1.075 12.8370 -999.0000 12.9 0.0 12.6300 0.0000 4.0000 10.0000
2022-01-21 04:45:00 2022-01-20 20:45:00 -999.0000 21.56 -999.00 0.8450 -999.0000 -0.8 -999.0000 -999 0.0 -999.0000 -999.0000 1.067 12.8420 -999.0000 12.9 0.0 12.6200 0.0000 4.0000 9.0000
2022-01-21 05:00:00 2022-01-20 21:00:00 -999.0000 21.56 -999.00 0.5710 -999.0000 -0.8 -999.0000 -999 0.0 -999.0000 -999.0000 1.069 12.8440 -999.0000 12.9 0.0 12.6500 0.0000 2.0000 4.0000
2022-01-21 05:15:00 2022-01-20 21:15:00 -999.0000 21.56 -999.00 0.4070 -999.0000 -0.8 -999.0000 -999 0.0 -999.0000 -999.0000 3.417 12.8440 -999.0000 12.9 0.0 12.6400 0.0000 6.0000 9.0000
2022-01-21 05:30:00 2022-01-20 21:30:00 -999.0000 21.56 -999.00 0.3900 -999.0000 -0.8 -999.0000 -999 0.0 -999.0000 -999.0000 1.070 12.8470 -999.0000 12.9 0.0 12.6300 0.0000 4.0000 6.0000
2022-01-21 05:45:00 2022-01-20 21:45:00 -999.0000 21.56 -999.00 0.8070 -999.0000 -0.8 -999.0000 -999 0.0 -999.0000 -999.0000 1.074 12.8540 -999.0000 12.9 0.0 12.6300 0.0000 8.0000 8.0000
2022-01-21 06:00:00 2022-01-20 22:00:00 -999.0000 21.56 -999.00 1.2840 -999.0000 -0.8 -999.0000 -999 0.0 -999.0000 -999.0000 3.417 12.8650 -999.0000 12.9 0.0 12.6300 0.0000 8.0000 11.0000
2022-01-21 06:15:00 2022-01-20 22:15:00 -999.0000 21.56 -999.00 1.0490 -999.0000 -0.8 -999.0000 -999 0.0 -999.0000 -999.0000 1.065 12.8650 -999.0000 12.9 0.0 12.6300 0.0000 5.0000 11.0000
2022-01-21 06:30:00 2022-01-20 22:30:00 -999.0000 21.56 -999.00 0.7280 -999.0000 -0.8 -999.0000 -999 0.0 -999.0000 -999.0000 3.417 12.8610 -999.0000 12.9 0.0 12.6300 0.0000 8.0000 8.0000
2022-01-21 06:45:00 2022-01-20 22:45:00 -999.0000 21.56 -999.00 0.5890 -999.0000 -0.8 -999.0000 -999 0.0 -999.0000 -999.0000 1.065 12.8620 -999.0000 12.9 0.0 12.6400 0.0000 6.0000 3.0000
2022-01-21 07:00:00 2022-01-20 23:00:00 -999.0000 21.56 -999.00 0.5140 -999.0000 -0.8 -999.0000 -999 0.0 -999.0000 -999.0000 1.069 12.8640 -999.0000 12.9 0.0 12.6400 0.0000 6.0000 5.0000
2022-01-21 07:15:00 2022-01-20 23:15:00 -999.0000 21.56 -999.00 0.4190 -999.0000 -0.8 -999.0000 -999 0.0 -999.0000 -999.0000 1.103 12.8700 -999.0000 12.9 0.0 12.6300 0.0000 6.0000 6.0000
2022-01-21 07:30:00 2022-01-20 23:30:00 -999.0000 21.56 -999.00 0.1510 -999.0000 -0.8 -999.0000 -999 0.0 -999.0000 -999.0000 3.417 12.8690 -999.0000 12.9 0.1 12.6400 0.0000 2.0000 10.0000
2022-01-21 07:45:00 2022-01-20 23:45:00 -999.0000 21.56 -999.00 -0.1550 -999.0000 -1.2 -999.0000 -999 0.0 -999.0000 -999.0000 3.417 12.8730 -999.0000 12.9 0.1 12.6400 0.0000 2.0000 8.0000
2022-01-21 08:00:00 2022-01-21 00:00:00 -999.0000 21.56 -999.00 -0.4450 -999.0000 -1.4 -999.0000 -999 0.0 -999.0000 -999.0000 3.417 12.8750 -999.0000 12.9 0.1 12.6300 0.0000 6.0000 12.0000
2022-01-21 08:15:00 2022-01-21 00:15:00 -999.0000 21.56 -999.00 -0.7680 -999.0000 -1.4 -999.0000 -999 0.0 -999.0000 -999.0000 3.417 12.8750 -999.0000 12.9 0.1 12.6300 0.0000 2.0000 7.0000
2022-01-21 08:30:00 2022-01-21 00:30:00 -999.0000 21.56 -999.00 -0.9720 -999.0000 -1.4 -999.0000 -999 0.0 -999.0000 -999.0000 3.417 12.8750 -999.0000 12.9 0.1 12.6300 0.0000 7.0000 9.0000
2022-01-21 08:45:00 2022-01-21 00:45:00 -999.0000 21.56 -999.00 -1.2110 -999.0000 -1.7 -999.0000 -999 0.0 -999.0000 -999.0000 1.069 12.8780 -999.0000 12.9 0.1 12.6400 0.0000 7.0000 9.0000
2022-01-21 09:00:00 2022-01-21 01:00:00 -999.0000 21.56 -999.00 -1.3700 -999.0000 -1.7 -999.0000 -999 0.0 -999.0000 -999.0000 3.417 12.8790 -999.0000 12.9 0.1 12.6400 0.0000 7.0000 9.0000
2022-01-21 09:15:00 2022-01-21 01:15:00 -999.0000 21.56 -999.00 -1.3420 -999.0000 -1.9 -999.0000 -999 0.0 -999.0000 -999.0000 1.066 12.8830 -999.0000 12.9 0.1 12.6400 0.0000 4.0000 8.0000
2022-01-21 09:30:00 2022-01-21 01:30:00 -999.0000 21.56 -999.00 -1.3130 -999.0000 -1.9 -999.0000 -999 0.0 -999.0000 -999.0000 1.063 12.8820 -999.0000 12.9 0.1 12.6300 0.0000 5.0000 11.0000
2022-01-21 09:45:00 2022-01-21 01:45:00 -999.0000 21.56 -999.00 -1.4060 -999.0000 -1.9 -999.0000 -999 0.0 -999.0000 -999.0000 1.065 12.8850 -999.0000 12.9 0.1 12.6500 0.0000 8.0000 12.0000
2022-01-21 10:00:00 2022-01-21 02:00:00 -999.0000 21.56 -999.00 -1.4990 -999.0000 -2.1 -999.0000 -999 0.0 -999.0000 -999.0000 1.063 12.8910 -999.0000 12.9 0.1 12.6400 0.0000 8.0000 12.0000
2022-01-21 10:15:00 2022-01-21 02:15:00 -999.0000 21.56 -999.00 -1.5620 -999.0000 -2.1 -999.0000 -999 0.0 -999.0000 -999.0000 1.065 12.9010 -999.0000 12.8 0.1 12.6300 0.0000 6.0000 10.0000
2022-01-21 10:30:00 2022-01-21 02:30:00 -999.0000 21.56 -999.00 -1.5280 -999.0000 -2.2 -999.0000 -999 0.0 -999.0000 -999.0000 1.066 12.9040 -999.0000 12.9 0.1 12.6300 0.0000 7.0000 13.0000
2022-01-21 10:45:00 2022-01-21 02:45:00 -999.0000 21.56 -999.00 -1.5410 -999.0000 -2.2 -999.0000 -999 0.0 -999.0000 -999.0000 1.066 12.9060 -999.0000 12.9 0.1 12.6400 0.0000 7.0000 10.0000
2022-01-21 11:00:00 2022-01-21 03:00:00 -999.0000 21.56 -999.00 -1.6660 -999.0000 -2.2 -999.0000 -999 0.0 -999.0000 -999.0000 1.066 12.9080 -999.0000 12.9 0.1 12.6400 0.0000 5.0000 10.0000
2022-01-21 11:15:00 2022-01-21 03:15:00 -999.0000 21.56 -999.00 -1.6940 -999.0000 -2.4 -999.0000 -999 0.0 -999.0000 -999.0000 1.065 12.9090 -999.0000 12.8 0.1 12.6400 0.0000 7.0000 13.0000
2022-01-21 11:30:00 2022-01-21 03:30:00 -999.0000 21.56 -999.00 -1.6520 -999.0000 -2.4 -999.0000 -999 0.0 -999.0000 -999.0000 1.069 12.9120 -999.0000 12.8 0.1 12.6400 0.0000 6.0000 9.0000
2022-01-21 11:45:00 2022-01-21 03:45:00 -999.0000 21.56 -999.00 -1.7420 -999.0000 -2.4 -999.0000 -999 0.0 -999.0000 -999.0000 1.068 12.9130 -999.0000 12.8 0.0 12.6400 0.0000 3.0000 10.0000
2022-01-21 12:00:00 2022-01-21 04:00:00 -999.0000 21.56 -999.00 -1.7420 -999.0000 -2.4 -999.0000 -999 0.0 -999.0000 -999.0000 1.070 12.9120 -999.0000 12.8 0.0 12.6400 0.0000 3.0000 8.0000
2022-01-21 12:15:00 2022-01-21 04:15:00 -999.0000 21.56 -999.00 -1.7210 -999.0000 -2.4 -999.0000 -999 0.0 -999.0000 -999.0000 1.069 12.9150 -999.0000 12.8 0.1 12.6400 0.0000 8.0000 10.0000
2022-01-21 12:30:00 2022-01-21 04:30:00 -999.0000 21.56 -999.00 -1.7670 -999.0000 -2.4 -999.0000 -999 0.0 -999.0000 -999.0000 1.077 12.9140 -999.0000 12.8 0.1 12.6300 0.0000 8.0000 7.0000
2022-01-21 12:45:00 2022-01-21 04:45:00 -999.0000 21.56 -999.00 -1.8130 -999.0000 -2.6 -999.0000 -999 0.0 -999.0000 -999.0000 1.081 12.9120 -999.0000 12.8 0.1 12.6300 0.0000 8.0000 8.0000
2022-01-21 13:00:00 2022-01-21 05:00:00 -999.0000 21.56 -999.00 -1.9290 -999.0000 -2.6 -999.0000 -999 0.0 -999.0000 -999.0000 1.141 12.9100 -999.0000 12.8 0.1 12.6400 0.0000 9.0000 12.0000
2022-01-21 13:15:00 2022-01-21 05:15:00 -999.0000 21.56 -999.00 -2.0410 -999.0000 -2.7 -999.0000 -999 0.0 -999.0000 -999.0000 1.142 12.9120 -999.0000 12.8 0.1 12.6400 0.0000 9.0000 5.0000
2022-01-21 13:30:00 2022-01-21 05:30:00 -999.0000 21.56 -999.00 -2.2170 -999.0000 -2.9 -999.0000 -999 0.0 -999.0000 -999.0000 1.081 12.9100 -999.0000 12.8 0.1 12.6300 0.0000 10.0000 9.0000
2022-01-21 13:45:00 2022-01-21 05:45:00 -999.0000 21.56 -999.00 -2.4450 -999.0000 -2.9 -999.0000 -999 0.0 -999.0000 -999.0000 1.146 12.9140 -999.0000 12.8 0.1 12.6400 0.0000 6.0000 6.0000
2022-01-21 14:00:00 2022-01-21 06:00:00 -999.0000 21.56 -999.00 -2.5680 -999.0000 -3.1 -999.0000 -999 0.0 -999.0000 -999.0000 1.143 12.9170 -999.0000 12.8 0.0 12.6300 0.0000 1.0000 13.0000
2022-01-21 14:15:00 2022-01-21 06:15:00 -999.0000 21.56 -999.00 -2.5950 -999.0000 -3.3 -999.0000 -999 0.0 -999.0000 -999.0000 1.142 12.9130 -999.0000 12.8 0.0 12.6300 0.0000 1.0000 9.0000
2022-01-21 14:30:00 2022-01-21 06:30:00 -999.0000 21.56 -999.00 -2.4530 -999.0000 -3.3 -999.0000 -999 0.0 -999.0000 -999.0000 1.083 12.9160 -999.0000 12.8 0.0 12.6300 0.0000 8.0000 13.0000
2022-01-21 14:45:00 2022-01-21 06:45:00 -999.0000 21.56 -999.00 -2.3580 -999.0000 -3.4 -999.0000 -999 0.0 -999.0000 -999.0000 1.142 12.9180 -999.0000 12.8 0.1 12.6400 0.0000 9.0000 8.0000
2022-01-21 15:00:00 2022-01-21 07:00:00 -999.0000 21.56 -999.00 -2.3960 -999.0000 -3.6 -999.0000 -999 0.0 -999.0000 -999.0000 1.103 12.9200 -999.0000 12.8 0.2 12.6200 0.0000 5.0000 12.0000
2022-01-21 15:15:00 2022-01-21 07:15:00 -999.0000 21.56 -999.00 -2.4930 -999.0000 -3.6 -999.0000 -999 0.0 -999.0000 -999.0000 1.100 12.9220 -999.0000 12.8 1.2 12.6300 0.0000 6.0000 8.0000
2022-01-21 15:30:00 2022-01-21 07:30:00 -999.0000 21.56 -999.00 -2.4180 -999.0000 -3.6 -999.0000 -999 0.0 -999.0000 -999.0000 1.135 12.9190 -999.0000 12.8 12.2 12.6400 0.0000 10.0000 10.0000
2022-01-21 15:45:00 2022-01-21 07:45:00 -999.0000 21.56 -999.00 -2.4770 -999.0000 -3.8 -999.0000 -999 0.0 -999.0000 -999.0000 1.139 12.9220 -999.0000 12.8 12.8 12.6300 0.0000 8.0000 9.0000
2022-01-21 16:00:00 2022-01-21 08:00:00 -999.0000 21.56 -999.00 -2.5810 -999.0000 -3.8 -999.0000 -999 0.0 -999.0000 -999.0000 1.083 12.9220 -999.0000 12.8 12.8 12.6400 0.0000 9.0000 10.0000
2022-01-21 16:15:00 2022-01-21 08:15:00 -999.0000 21.56 -999.00 -2.6670 -999.0000 -3.8 -999.0000 -999 0.0 -999.0000 -999.0000 1.114 12.9180 -999.0000 12.8 12.8 12.6300 0.0000 7.0000 11.0000
2022-01-21 16:30:00 2022-01-21 08:30:00 -999.0000 21.56 -999.00 -2.6710 -999.0000 -3.8 -999.0000 -999 0.0 -999.0000 -999.0000 1.137 12.9230 -999.0000 12.8 12.8 12.6300 0.5500 7.0000 3.0000
2022-01-21 16:45:00 2022-01-21 08:45:00 -999.0000 21.56 -999.00 -2.6600 -999.0000 -3.8 -999.0000 -999 0.0 -999.0000 -999.0000 1.140 12.9290 -999.0000 12.9 12.8 12.6400 6.6300 10.0000 12.0000
2022-01-21 17:00:00 2022-01-21 09:00:00 -999.0000 21.56 -999.00 -2.5600 -999.0000 -3.8 -999.0000 -999 0.0 -999.0000 -999.0000 1.116 12.9310 -999.0000 12.9 12.9 12.6400 9.6600 8.0000 6.0000
2022-01-21 17:15:00 2022-01-21 09:15:00 -999.0000 21.56 -999.00 -2.3480 -999.0000 -3.6 -999.0000 -999 0.0 -999.0000 -999.0000 1.107 12.9340 -999.0000 12.9 12.9 12.6400 8.5600 6.0000 9.0000
2022-01-21 17:30:00 2022-01-21 09:30:00 -999.0000 21.56 -999.00 -2.2330 -999.0000 -3.6 -999.0000 -999 0.0 -999.0000 -999.0000 1.100 12.9390 -999.0000 12.9 12.9 12.6400 4.1800 8.0000 9.0000
2022-01-21 17:45:00 2022-01-21 09:45:00 -999.0000 21.56 -999.00 -2.1980 -999.0000 -3.4 -999.0000 -999 0.0 -999.0000 -999.0000 1.113 12.9440 -999.0000 12.9 12.9 12.6300 11.4200 8.0000 10.0000
2022-01-21 18:00:00 2022-01-21 10:00:00 -999.0000 21.56 -999.00 -1.7680 -999.0000 -3.4 -999.0000 -999 0.0 -999.0000 -999.0000 1.138 12.9460 -999.0000 13.0 13.0 12.6300 11.6100 7.0000 11.0000
2022-01-21 18:15:00 2022-01-21 10:15:00 -999.0000 21.56 -999.00 -1.2480 -999.0000 -3.1 -999.0000 -999 0.0 -999.0000 -999.0000 3.417 12.9510 -999.0000 13.0 13.1 12.6400 11.8500 7.0000 4.0000
2022-01-21 18:30:00 2022-01-21 10:30:00 -999.0000 21.56 -999.00 -0.7730 -999.0000 -2.6 -999.0000 -999 0.0 -999.0000 -999.0000 1.145 12.9530 -999.0000 13.1 13.1 12.6400 11.6000 1.0000 7.0000
2022-01-21 18:45:00 2022-01-21 10:45:00 -999.0000 21.56 -999.00 -0.3990 -999.0000 -2.1 -999.0000 -999 0.0 -999.0000 -999.0000 1.149 12.9540 -999.0000 13.1 13.2 12.6300 11.7200 8.0000 9.0000
2022-01-21 19:00:00 2022-01-21 11:00:00 -999.0000 21.56 -999.00 0.0100 -999.0000 -1.7 -999.0000 -999 0.0 -999.0000 -999.0000 1.145 12.9560 -999.0000 13.2 13.3 12.6300 11.7500 8.0000 9.0000
2022-01-21 19:15:00 2022-01-21 11:15:00 -999.0000 21.56 -999.00 0.2610 -999.0000 -1.2 -999.0000 -999 0.0 -999.0000 -999.0000 1.147 12.9520 -999.0000 13.2 13.3 12.6600 11.9000 6.0000 11.0000
2022-01-21 19:30:00 2022-01-21 11:30:00 -999.0000 21.56 -999.00 0.4010 -999.0000 -0.8 -999.0000 -999 0.0 -999.0000 -999.0000 1.141 12.9510 -999.0000 13.2 13.3 12.6400 11.5900 7.0000 2.0000
2022-01-21 19:45:00 2022-01-21 11:45:00 -999.0000 21.57 -999.00 0.6520 -999.0000 -0.3 -999.0000 -999 0.0 -999.0000 -999.0000 1.151 12.9490 -999.0000 13.9 14.2 12.6400 8.2600 4.0000 2.0000
2022-01-21 20:00:00 2022-01-21 12:00:00 -999.0000 21.57 -999.00 0.6690 -999.0000 0.6 -999.0000 -999 0.0 -999.0000 -999.0000 1.162 12.9520 -999.0000 13.3 13.4 12.6300 5.5100 4.0000 7.0000
2022-01-21 20:15:00 2022-01-21 12:15:00 -999.0000 21.57 -999.00 0.4060 -999.0000 0.9 -999.0000 -999 0.0 -999.0000 -999.0000 1.140 12.9500 -999.0000 13.2 13.3 12.6400 5.0300 6.0000 2.0000
2022-01-21 20:30:00 2022-01-21 12:30:00 -999.0000 21.57 -999.00 0.2920 -999.0000 0.9 -999.0000 -999 0.0 -999.0000 -999.0000 1.143 12.9500 -999.0000 13.2 13.2 12.6400 3.8800 6.0000 4.0000
2022-01-21 20:45:00 2022-01-21 12:45:00 -999.0000 21.57 -999.00 0.1580 -999.0000 0.6 -999.0000 -999 0.0 -999.0000 -999.0000 1.148 12.9440 -999.0000 13.2 13.2 12.6300 3.4000 7.0000 9.0000
2022-01-21 21:00:00 2022-01-21 13:00:00 -999.0000 21.57 -999.00 0.0390 -999.0000 0.4 -999.0000 -999 0.0 -999.0000 -999.0000 1.151 12.9410 -999.0000 13.2 13.2 12.6300 2.7700 3.0000 10.0000
2022-01-21 21:15:00 2022-01-21 13:15:00 -999.0000 21.57 -999.00 -0.0930 -999.0000 0.0 -999.0000 -999 0.0 -999.0000 -999.0000 1.142 12.9380 -999.0000 13.2 13.2 12.6400 3.6800 6.0000 7.0000
2022-01-21 21:30:00 2022-01-21 13:30:00 -999.0000 21.57 -999.00 -0.1930 -999.0000 -0.1 -999.0000 -999 0.0 -999.0000 -999.0000 1.146 12.9370 -999.0000 13.2 13.2 12.6300 5.5100 7.0000 9.0000
2022-01-21 21:45:00 2022-01-21 13:45:00 -999.0000 21.57 -999.00 -0.1240 -999.0000 -0.1 -999.0000 -999 0.0 -999.0000 -999.0000 1.155 12.9370 -999.0000 13.2 13.3 12.6300 9.4700 3.0000 7.0000
2022-01-21 22:00:00 2022-01-21 14:00:00 -999.0000 21.57 -999.00 0.0860 -999.0000 -0.3 -999.0000 -999 0.0 -999.0000 -999.0000 1.150 12.9400 -999.0000 13.3 13.4 12.6300 11.5100 3.0000 9.0000
2022-01-21 22:15:00 2022-01-21 14:15:00 -999.0000 21.57 -999.00 0.4620 -999.0000 -0.1 -999.0000 -999 0.0 -999.0000 -999.0000 1.151 12.9430 -999.0000 13.4 13.4 12.6300 11.5100 6.0000 7.0000
2022-01-21 22:30:00 2022-01-21 14:30:00 -999.0000 21.58 -999.00 0.7410 -999.0000 0.2 -999.0000 -999 0.0 -999.0000 -999.0000 1.150 12.9460 -999.0000 13.3 13.4 12.6400 8.6600 9.0000 8.0000
2022-01-21 22:45:00 2022-01-21 14:45:00 -999.0000 21.58 -999.00 0.8760 -999.0000 0.2 -999.0000 -999 0.0 -999.0000 -999.0000 1.094 12.9470 -999.0000 13.3 13.4 12.6300 10.2400 5.0000 11.0000
2022-01-21 23:00:00 2022-01-21 15:00:00 -999.0000 21.58 -999.00 1.0070 -999.0000 0.2 -999.0000 -999 0.0 -999.0000 -999.0000 1.161 12.9470 -999.0000 13.3 13.4 12.6400 11.4100 6.0000 6.0000
2022-01-21 23:15:00 2022-01-21 15:15:00 -999.0000 21.58 -999.00 1.1690 -999.0000 0.4 -999.0000 -999 0.0 -999.0000 -999.0000 1.149 12.9500 -999.0000 13.3 13.3 12.6300 6.3900 6.0000 5.0000
2022-01-21 23:30:00 2022-01-21 15:30:00 -999.0000 21.58 -999.00 1.0360 -999.0000 0.4 -999.0000 -999 0.0 -999.0000 -999.0000 1.149 12.9490 -999.0000 13.3 13.3 12.6300 0.4800 6.0000 7.0000
2022-01-21 23:45:00 2022-01-21 15:45:00 -999.0000 21.58 -999.00 0.7230 -999.0000 0.4 -999.0000 -999 0.0 -999.0000 -999.0000 1.158 12.9480 -999.0000 13.2 13.2 12.6400 0.0000 6.0000 7.0000
2022-01-22 00:00:00 2022-01-21 16:00:00 -999.0000 21.58 -999.00 0.4600 -999.0000 0.2 -999.0000 -999 0.0 -999.0000 -999.0000 1.152 12.9470 -999.0000 13.2 13.2 12.6300 0.0000 5.0000 8.0000
2022-01-22 00:15:00 2022-01-21 16:15:00 -999.0000 21.58 -999.00 0.2630 -999.0000 -0.1 -999.0000 -999 0.0 -999.0000 -999.0000 1.140 12.9480 -999.0000 13.2 13.1 12.6400 0.0000 8.0000 8.0000
2022-01-22 00:30:00 2022-01-21 16:30:00 -999.0000 21.58 -999.00 0.0660 -999.0000 -0.1 -999.0000 -999 0.0 -999.0000 -999.0000 1.093 12.9490 -999.0000 13.2 13.2 12.6300 0.0000 6.0000 3.0000
2022-01-22 00:45:00 2022-01-21 16:45:00 -999.0000 21.58 -999.00 -0.0630 -999.0000 -0.7 -999.0000 -999 0.0 -999.0000 -999.0000 1.146 12.9500 -999.0000 13.1 13.1 12.6500 0.0000 5.0000 6.0000
2022-01-22 01:00:00 2022-01-21 17:00:00 -999.0000 21.58 -999.00 -0.2310 -999.0000 -0.8 -999.0000 -999 0.0 -999.0000 -999.0000 1.078 12.9490 -999.0000 13.1 12.3 12.6400 0.0000 5.0000 3.0000
2022-01-22 01:15:00 2022-01-21 17:15:00 -999.0000 21.58 -999.00 -0.4320 -999.0000 -0.8 -999.0000 -999 0.0 -999.0000 -999.0000 0.772 12.9490 -999.0000 13.1 8.0 12.6400 0.0000 5.0000 4.0000
2022-01-22 01:30:00 2022-01-21 17:30:00 -999.0000 21.58 -999.00 -0.5500 -999.0000 -1.0 -999.0000 -999 0.0 -999.0000 -999.0000 1.078 12.9510 -999.0000 13.1 0.3 12.6400 0.0000 6.0000 7.0000
2022-01-22 01:45:00 2022-01-21 17:45:00 -999.0000 21.58 -999.00 -0.6710 -999.0000 -1.4 -999.0000 -999 0.0 -999.0000 -999.0000 1.099 12.9510 -999.0000 13.1 0.1 12.6400 0.0000 6.0000 8.0000
2022-01-22 02:00:00 2022-01-21 18:00:00 -999.0000 21.58 -999.00 -0.7540 -999.0000 -1.5 -999.0000 -999 0.0 -999.0000 -999.0000 1.117 12.9510 -999.0000 13.1 0.1 12.6400 0.0000 7.0000 8.0000
2022-01-22 02:15:00 2022-01-21 18:15:00 -999.0000 21.58 -999.00 -0.9030 -999.0000 -1.5 -999.0000 -999 0.0 -999.0000 -999.0000 1.071 12.9480 -999.0000 13.0 0.0 12.6400 0.0000 7.0000 9.0000
2022-01-22 02:30:00 2022-01-21 18:30:00 -999.0000 21.58 -999.00 -0.9890 -999.0000 -1.7 -999.0000 -999 0.0 -999.0000 -999.0000 1.087 12.9460 -999.0000 13.0 0.0 12.6400 0.0000 7.0000 9.0000
2022-01-22 02:45:00 2022-01-21 18:45:00 -999.0000 21.58 -999.00 -1.1260 -999.0000 -1.9 -999.0000 -999 0.0 -999.0000 -999.0000 0.768 12.9440 -999.0000 13.0 0.0 12.6400 0.0000 7.0000 7.0000
2022-01-22 03:00:00 2022-01-21 19:00:00 -999.0000 21.58 -999.00 -1.3020 -999.0000 -2.1 -999.0000 -999 0.0 -999.0000 -999.0000 1.072 12.9420 -999.0000 13.0 0.0 12.6400 0.0000 9.0000 9.0000
2022-01-22 03:15:00 2022-01-21 19:15:00 -999.0000 21.58 -999.00 -1.2660 -999.0000 -2.2 -999.0000 -999 0.0 -999.0000 -999.0000 1.082 12.9420 -999.0000 13.0 0.0 12.6300 0.0000 9.0000 9.0000
2022-01-22 03:30:00 2022-01-21 19:30:00 -999.0000 21.58 -999.00 -1.3120 -999.0000 -2.2 -999.0000 -999 0.0 -999.0000 -999.0000 0.755 12.9420 -999.0000 13.0 0.0 12.6300 0.0000 5.0000 12.0000
2022-01-22 03:45:00 2022-01-21 19:45:00 -999.0000 21.58 -999.00 -1.4270 -999.0000 -2.4 -999.0000 -999 0.0 -999.0000 -999.0000 1.145 12.9440 -999.0000 13.1 0.0 12.6400 0.0000 5.0000 10.0000
2022-01-22 04:00:00 2022-01-21 20:00:00 -999.0000 21.58 -999.00 -1.4770 -999.0000 -2.7 -999.0000 -999 0.0 -999.0000 -999.0000 3.417 12.9410 -999.0000 13.0 0.0 12.6400 0.0000 5.0000 13.0000
2022-01-22 04:15:00 2022-01-21 20:15:00 -999.0000 21.58 -999.00 -1.4680 -999.0000 -2.7 -999.0000 -999 0.0 -999.0000 -999.0000 1.076 12.9390 -999.0000 13.0 0.0 12.6300 0.0000 8.0000 9.0000
2022-01-22 04:30:00 2022-01-21 20:30:00 -999.0000 21.58 -999.00 -1.5000 -999.0000 -2.9 -999.0000 -999 0.0 -999.0000 -999.0000 3.417 12.9370 -999.0000 13.0 0.0 12.6400 0.0000 3.0000 6.0000
2022-01-22 04:45:00 2022-01-21 20:45:00 -999.0000 21.58 -999.00 -1.6300 -999.0000 -2.9 -999.0000 -999 0.0 -999.0000 -999.0000 1.071 12.9370 -999.0000 13.0 0.0 12.6400 0.0000 6.0000 12.0000
2022-01-22 05:00:00 2022-01-21 21:00:00 -999.0000 21.58 -999.00 -1.8450 -999.0000 -3.1 -999.0000 -999 0.0 -999.0000 -999.0000 1.067 12.9340 -999.0000 13.0 0.0 12.6400 0.0000 7.0000 7.0000
2022-01-22 05:15:00 2022-01-21 21:15:00 -999.0000 21.58 -999.00 -1.9190 -999.0000 -3.1 -999.0000 -999 0.0 -999.0000 -999.0000 1.143 12.9350 -999.0000 12.9 0.0 12.6400 0.0000 8.0000 7.0000
2022-01-22 05:30:00 2022-01-21 21:30:00 -999.0000 21.58 -999.00 -1.9750 -999.0000 -3.1 -999.0000 -999 0.0 -999.0000 -999.0000 1.075 12.9360 -999.0000 13.0 0.0 12.6400 0.0000 8.0000 10.0000
2022-01-22 05:45:00 2022-01-21 21:45:00 -999.0000 21.58 -999.00 -2.1340 -999.0000 -3.3 -999.0000 -999 0.0 -999.0000 -999.0000 1.068 12.9340 -999.0000 13.0 0.0 12.6400 0.0000 4.0000 10.0000
2022-01-22 06:00:00 2022-01-21 22:00:00 -999.0000 21.58 -999.00 -2.1840 -999.0000 -3.6 -999.0000 -999 0.0 -999.0000 -999.0000 0.753 12.9320 -999.0000 13.0 0.0 12.6400 0.0000 7.0000 9.0000
2022-01-22 06:15:00 2022-01-21 22:15:00 -999.0000 21.58 -999.00 -2.2690 -999.0000 -3.4 -999.0000 -999 0.0 -999.0000 -999.0000 1.079 12.9290 -999.0000 12.9 0.0 12.6300 0.0000 7.0000 9.0000
2022-01-22 06:30:00 2022-01-21 22:30:00 -999.0000 21.58 -999.00 -2.3960 -999.0000 -3.6 -999.0000 -999 0.0 -999.0000 -999.0000 1.074 12.9290 -999.0000 12.9 0.0 12.6400 0.0000 7.0000 12.0000
2022-01-22 06:45:00 2022-01-21 22:45:00 -999.0000 21.58 -999.00 -2.3090 -999.0000 -3.8 -999.0000 -999 0.0 -999.0000 -999.0000 1.072 12.9300 -999.0000 12.9 0.0 12.6100 0.0000 8.0000 11.0000
2022-01-22 07:00:00 2022-01-21 23:00:00 -999.0000 21.58 -999.00 -2.3500 -999.0000 -4.0 -999.0000 -999 0.0 -999.0000 -999.0000 1.125 12.9300 -999.0000 12.9 0.0 12.6300 0.0000 6.0000 11.0000
2022-01-22 07:15:00 2022-01-21 23:15:00 -999.0000 21.58 -999.00 -2.4280 -999.0000 -4.0 -999.0000 -999 0.0 -999.0000 -999.0000 1.074 12.9280 -999.0000 12.9 0.0 12.6300 0.0000 7.0000 14.0000
2022-01-22 07:30:00 2022-01-21 23:30:00 -999.0000 21.58 -999.00 -2.3390 -999.0000 -4.0 -999.0000 -999 0.0 -999.0000 -999.0000 1.098 12.9290 -999.0000 12.9 0.0 12.6400 0.0000 7.0000 11.0000
2022-01-22 07:45:00 2022-01-21 23:45:00 -999.0000 21.58 -999.00 -2.3420 -999.0000 -4.1 -999.0000 -999 0.0 -999.0000 -999.0000 1.081 12.9300 -999.0000 12.9 0.0 12.6400 0.0000 8.0000 11.0000